Time,TemperatureF,DewpointF,PressureIn,WindDirection,WindDirectionDegrees,WindSpeedMPH,WindSpeedGustMPH,Humidity,HourlyPrecipIn,Conditions,Clouds,dailyrainin,SoftwareType,DateUTC
2013-10-26 00:01:00,32.9,29.5,30.34,ENE,69,1.0,1.0,87,0.00,,,0.00,Wunderground v.1.15,2013-10-26 04:01:00,
2013-10-26 00:07:00,32.8,29.6,30.34,ENE,69,1.0,1.0,88,0.00,,,0.00,Wunderground v.1.15,2013-10-26 04:07:00,
2013-10-26 00:08:00,32.7,29.5,30.33,ENE,70,0.0,1.0,88,0.00,,,0.00,Wunderground v.1.15,2013-10-26 04:08:00,
2013-10-26 00:10:00,32.6,29.4,30.33,ENE,70,0.0,0.0,88,0.00,,,0.00,Wunderground v.1.15,2013-10-26 04:10:00,
2013-10-26 00:13:00,32.6,29.4,30.33,ENE,69,0.0,0.0,88,0.00,,,0.00,Wunderground v.1.15,2013-10-26 04:13:00,
2013-10-26 00:14:00,32.5,29.1,30.33,ENE,70,0.0,0.0,87,0.00,,,0.00,Wunderground v.1.15,2013-10-26 04:14:00,
2013-10-26 00:15:00,32.5,29.1,30.33,ENE,69,0.0,0.0,87,0.00,,,0.00,Wunderground v.1.15,2013-10-26 04:15:00,
2013-10-26 00:18:00,32.3,28.9,30.33,ENE,69,0.0,0.0,87,0.00,,,0.00,Wunderground v.1.15,2013-10-26 04:18:00,
2013-10-26 00:19:00,32.3,28.9,30.33,ENE,69,0.0,0.0,87,0.00,,,0.00,Wunderground v.1.15,2013-10-26 04:19:00,
2013-10-26 00:20:00,32.3,29.1,30.33,ENE,69,0.0,0.0,88,0.00,,,0.00,Wunderground v.1.15,2013-10-26 04:20:00,
2013-10-26 00:21:00,32.2,29.0,30.33,ENE,70,0.0,0.0,88,0.00,,,0.00,Wunderground v.1.15,2013-10-26 04:21:00,
2013-10-26 00:24:00,32.1,28.9,30.33,ENE,70,0.0,0.0,88,0.00,,,0.00,Wunderground v.1.15,2013-10-26 04:24:00,
2013-10-26 00:26:00,32.0,28.8,30.33,ENE,70,0.0,0.0,88,0.00,,,0.00,Wunderground v.1.15,2013-10-26 04:26:00,
2013-10-26 00:30:00,31.8,28.7,30.33,ENE,70,0.0,0.0,88,0.00,,,0.00,Wunderground v.1.15,2013-10-26 04:30:00,
2013-10-26 00:31:00,31.7,28.6,30.33,ENE,69,0.0,0.0,88,0.00,,,0.00,Wunderground v.1.15,2013-10-26 04:31:00,
2013-10-26 00:33:00,31.6,28.5,30.33,ENE,70,0.0,0.0,88,0.00,,,0.00,Wunderground v.1.15,2013-10-26 04:33:00,
2013-10-26 00:35:00,31.5,28.4,30.33,ENE,70,0.0,0.0,88,0.00,,,0.00,Wunderground v.1.15,2013-10-26 04:35:00,
2013-10-26 00:36:00,31.5,28.4,30.33,ENE,69,0.0,0.0,88,0.00,,,0.00,Wunderground v.1.15,2013-10-26 04:36:00,
2013-10-26 00:37:00,31.4,28.3,30.33,ENE,70,0.0,0.0,88,0.00,,,0.00,Wunderground v.1.15,2013-10-26 04:37:00,
2013-10-26 00:41:00,31.2,28.1,30.33,ENE,69,0.0,0.0,88,0.00,,,0.00,Wunderground v.1.15,2013-10-26 04:41:00,
2013-10-26 00:44:00,31.1,28.0,30.33,ENE,70,0.0,0.0,88,0.00,,,0.00,Wunderground v.1.15,2013-10-26 04:44:00,
2013-10-26 00:45:00,31.0,27.9,30.33,ENE,70,0.0,0.0,88,0.00,,,0.00,Wunderground v.1.15,2013-10-26 04:45:00,
2013-10-26 00:48:00,30.9,28.0,30.33,ENE,69,0.0,0.0,89,0.00,,,0.00,Wunderground v.1.15,2013-10-26 04:48:00,
2013-10-26 00:50:00,30.8,27.9,30.33,ENE,70,0.0,0.0,89,0.00,,,0.00,Wunderground v.1.15,2013-10-26 04:50:00,
2013-10-26 00:51:00,30.8,27.9,30.33,ENE,70,0.0,0.0,89,0.00,,,0.00,Wunderground v.1.15,2013-10-26 04:51:00,
2013-10-26 00:52:00,30.7,27.8,30.33,ENE,70,0.0,0.0,89,0.00,,,0.00,Wunderground v.1.15,2013-10-26 04:52:00,
2013-10-26 00:54:00,30.6,27.7,30.33,ENE,70,1.0,1.0,89,0.00,,,0.00,Wunderground v.1.15,2013-10-26 04:54:00,
2013-10-26 00:55:00,30.6,28.0,30.33,ENE,70,0.0,1.0,90,0.00,,,0.00,Wunderground v.1.15,2013-10-26 04:55:00,
2013-10-26 00:59:00,30.6,28.0,30.33,ENE,69,0.0,1.0,90,0.00,,,0.00,Wunderground v.1.15,2013-10-26 04:59:00,
2013-10-26 01:00:00,30.5,27.9,30.33,ENE,69,0.0,0.0,90,0.00,,,0.00,Wunderground v.1.15,2013-10-26 05:00:00,
2013-10-26 01:02:00,30.4,27.8,30.33,ENE,69,1.0,1.0,90,0.00,,,0.00,Wunderground v.1.15,2013-10-26 05:02:00,
2013-10-26 01:05:00,30.3,27.7,30.32,ENE,70,0.0,1.0,90,0.00,,,0.00,Wunderground v.1.15,2013-10-26 05:05:00,
2013-10-26 01:07:00,30.3,27.7,30.33,ENE,69,0.0,1.0,90,0.00,,,0.00,Wunderground v.1.15,2013-10-26 05:07:00,
2013-10-26 01:08:00,30.2,27.6,30.33,ENE,70,0.0,1.0,90,0.00,,,0.00,Wunderground v.1.15,2013-10-26 05:08:00,
2013-10-26 01:10:00,30.2,27.6,30.33,ENE,70,0.0,0.0,90,0.00,,,0.00,Wunderground v.1.15,2013-10-26 05:10:00,
2013-10-26 01:12:00,30.1,27.8,30.33,ENE,69,0.0,0.0,91,0.00,,,0.00,Wunderground v.1.15,2013-10-26 05:12:00,
2013-10-26 01:14:00,30.1,27.8,30.32,ENE,70,1.0,1.0,91,0.00,,,0.00,Wunderground v.1.15,2013-10-26 05:14:00,
2013-10-26 01:16:00,30.0,27.7,30.32,ENE,70,0.0,1.0,91,0.00,,,0.00,Wunderground v.1.15,2013-10-26 05:16:00,
2013-10-26 01:17:00,29.9,27.6,30.32,ENE,69,1.0,1.0,91,0.00,,,0.00,Wunderground v.1.15,2013-10-26 05:17:00,
2013-10-26 01:20:00,29.9,27.6,30.32,ENE,70,0.0,0.0,91,0.00,,,0.00,Wunderground v.1.15,2013-10-26 05:20:00,
2013-10-26 01:22:00,29.9,27.6,30.32,ENE,70,0.0,0.0,91,0.00,,,0.00,Wunderground v.1.15,2013-10-26 05:22:00,
2013-10-26 01:27:00,29.8,27.5,30.32,ENE,69,0.0,1.0,91,0.00,,,0.00,Wunderground v.1.15,2013-10-26 05:27:00,
2013-10-26 01:28:00,29.8,27.5,30.32,ENE,70,0.0,1.0,91,0.00,,,0.00,Wunderground v.1.15,2013-10-26 05:28:00,
2013-10-26 01:29:00,29.8,27.8,30.32,ENE,69,0.0,0.0,92,0.00,,,0.00,Wunderground v.1.15,2013-10-26 05:29:00,
2013-10-26 01:33:00,29.7,27.7,30.32,ENE,70,0.0,1.0,92,0.00,,,0.00,Wunderground v.1.15,2013-10-26 05:33:00,
2013-10-26 01:34:00,29.7,27.7,30.32,ENE,69,0.0,1.0,92,0.00,,,0.00,Wunderground v.1.15,2013-10-26 05:34:00,
2013-10-26 01:36:00,29.6,27.6,30.32,ENE,70,0.0,1.0,92,0.00,,,0.00,Wunderground v.1.15,2013-10-26 05:36:00,
2013-10-26 01:37:00,29.6,27.6,30.32,ENE,70,0.0,1.0,92,0.00,,,0.00,Wunderground v.1.15,2013-10-26 05:37:00,
2013-10-26 01:40:00,29.6,27.6,30.31,ENE,70,0.0,0.0,92,0.00,,,0.00,Wunderground v.1.15,2013-10-26 05:40:00,
2013-10-26 01:41:00,29.6,27.6,30.32,ENE,70,0.0,0.0,92,0.00,,,0.00,Wunderground v.1.15,2013-10-26 05:41:00,
2013-10-26 01:42:00,29.5,27.5,30.32,ENE,70,0.0,0.0,92,0.00,,,0.00,Wunderground v.1.15,2013-10-26 05:42:00,
2013-10-26 01:43:00,29.5,27.5,30.32,ENE,70,1.0,1.0,92,0.00,,,0.00,Wunderground v.1.15,2013-10-26 05:43:00,
2013-10-26 01:45:00,29.5,27.5,30.32,ENE,70,1.0,1.0,92,0.00,,,0.00,Wunderground v.1.15,2013-10-26 05:45:00,
2013-10-26 01:46:00,29.4,27.4,30.32,ENE,70,0.0,1.0,92,0.00,,,0.00,Wunderground v.1.15,2013-10-26 05:46:00,
2013-10-26 01:47:00,29.4,27.4,30.32,ENE,70,1.0,1.0,92,0.00,,,0.00,Wunderground v.1.15,2013-10-26 05:47:00,
2013-10-26 01:50:00,29.4,27.4,30.32,ENE,70,0.0,0.0,92,0.00,,,0.00,Wunderground v.1.15,2013-10-26 05:50:00,
2013-10-26 01:51:00,29.4,27.4,30.32,ENE,69,1.0,1.0,92,0.00,,,0.00,Wunderground v.1.15,2013-10-26 05:51:00,
2013-10-26 01:52:00,29.4,27.4,30.32,ENE,70,1.0,1.0,92,0.00,,,0.00,Wunderground v.1.15,2013-10-26 05:52:00,
2013-10-26 01:56:00,29.4,27.4,30.32,ENE,69,1.0,3.0,92,0.00,,,0.00,Wunderground v.1.15,2013-10-26 05:56:00,
2013-10-26 01:57:00,29.5,27.7,30.32,ENE,70,0.0,3.0,93,0.00,,,0.00,Wunderground v.1.15,2013-10-26 05:57:00,
2013-10-26 02:00:00,29.5,27.7,30.31,ENE,69,0.0,1.0,93,0.00,,,0.00,Wunderground v.1.15,2013-10-26 06:00:00,
2013-10-26 02:01:00,29.4,27.6,30.31,ENE,70,0.0,1.0,93,0.00,,,0.00,Wunderground v.1.15,2013-10-26 06:01:00,
2013-10-26 02:02:00,29.4,27.6,30.31,ENE,70,1.0,1.0,93,0.00,,,0.00,Wunderground v.1.15,2013-10-26 06:02:00,
2013-10-26 02:03:00,29.5,27.7,30.31,ENE,69,2.0,2.0,93,0.00,,,0.00,Wunderground v.1.15,2013-10-26 06:03:00,
2013-10-26 02:05:00,29.4,27.6,30.31,ENE,70,0.0,2.0,93,0.00,,,0.00,Wunderground v.1.15,2013-10-26 06:05:00,
2013-10-26 02:06:00,29.4,27.6,30.31,ENE,70,0.0,2.0,93,0.00,,,0.00,Wunderground v.1.15,2013-10-26 06:06:00,
2013-10-26 02:07:00,29.4,27.6,30.31,ENE,69,0.0,2.0,93,0.00,,,0.00,Wunderground v.1.15,2013-10-26 06:07:00,
2013-10-26 02:08:00,29.4,27.4,30.31,ENE,69,0.0,2.0,92,0.00,,,0.00,Wunderground v.1.15,2013-10-26 06:08:00,
2013-10-26 02:11:00,29.4,27.4,30.31,ENE,70,1.0,1.0,92,0.00,,,0.00,Wunderground v.1.15,2013-10-26 06:11:00,
2013-10-26 02:12:00,29.4,27.4,30.31,ENE,70,0.0,1.0,92,0.00,,,0.00,Wunderground v.1.15,2013-10-26 06:12:00,
2013-10-26 02:13:00,29.4,27.4,30.31,ENE,70,0.0,1.0,92,0.00,,,0.00,Wunderground v.1.15,2013-10-26 06:13:00,
2013-10-26 02:16:00,29.3,27.3,30.31,ENE,70,1.0,1.0,92,0.00,,,0.00,Wunderground v.1.15,2013-10-26 06:16:00,
2013-10-26 02:17:00,29.3,27.5,30.31,ENE,70,0.0,1.0,93,0.00,,,0.00,Wunderground v.1.15,2013-10-26 06:17:00,
2013-10-26 02:18:00,29.4,27.6,30.31,ENE,69,1.0,1.0,93,0.00,,,0.00,Wunderground v.1.15,2013-10-26 06:18:00,
2013-10-26 02:21:00,29.5,27.7,30.31,ENE,70,0.0,1.0,93,0.00,,,0.00,Wunderground v.1.15,2013-10-26 06:21:00,
2013-10-26 02:22:00,29.5,27.7,30.31,ENE,70,0.0,1.0,93,0.00,,,0.00,Wunderground v.1.15,2013-10-26 06:22:00,
2013-10-26 02:23:00,29.5,27.7,30.31,ENE,70,0.0,1.0,93,0.00,,,0.00,Wunderground v.1.15,2013-10-26 06:23:00,
2013-10-26 02:24:00,29.5,27.7,30.31,ENE,70,0.0,1.0,93,0.00,,,0.00,Wunderground v.1.15,2013-10-26 06:24:00,
2013-10-26 02:26:00,29.4,27.6,30.31,ENE,70,0.0,1.0,93,0.00,,,0.00,Wunderground v.1.15,2013-10-26 06:26:00,
2013-10-26 02:27:00,29.4,27.6,30.31,ENE,70,0.0,1.0,93,0.00,,,0.00,Wunderground v.1.15,2013-10-26 06:27:00,
2013-10-26 02:28:00,29.4,27.6,30.31,ENE,69,0.0,1.0,93,0.00,,,0.00,Wunderground v.1.15,2013-10-26 06:28:00,
2013-10-26 02:29:00,29.4,27.6,30.31,ENE,69,1.0,1.0,93,0.00,,,0.00,Wunderground v.1.15,2013-10-26 06:29:00,
2013-10-26 02:30:00,29.4,27.6,30.31,ENE,69,0.0,1.0,93,0.00,,,0.00,Wunderground v.1.15,2013-10-26 06:30:00,
2013-10-26 02:31:00,29.4,27.6,30.31,ENE,70,0.0,1.0,93,0.00,,,0.00,Wunderground v.1.15,2013-10-26 06:31:00,
2013-10-26 02:32:00,29.3,27.5,30.31,ENE,70,0.0,1.0,93,0.00,,,0.00,Wunderground v.1.15,2013-10-26 06:32:00,
2013-10-26 02:33:00,29.3,27.5,30.31,ENE,69,0.0,1.0,93,0.00,,,0.00,Wunderground v.1.15,2013-10-26 06:33:00,
2013-10-26 02:34:00,29.3,27.5,30.31,ENE,70,0.0,1.0,93,0.00,,,0.00,Wunderground v.1.15,2013-10-26 06:34:00,
2013-10-26 02:35:00,29.3,27.5,30.31,ENE,70,0.0,1.0,93,0.00,,,0.00,Wunderground v.1.15,2013-10-26 06:35:00,
2013-10-26 02:37:00,29.3,27.5,30.31,ENE,70,0.0,1.0,93,0.00,,,0.00,Wunderground v.1.15,2013-10-26 06:37:00,
2013-10-26 02:38:00,29.3,27.5,30.31,ENE,70,0.0,1.0,93,0.00,,,0.00,Wunderground v.1.15,2013-10-26 06:38:00,
2013-10-26 02:39:00,29.3,27.5,30.31,ENE,70,0.0,0.0,93,0.00,,,0.00,Wunderground v.1.15,2013-10-26 06:39:00,
2013-10-26 02:40:00,29.3,27.5,30.31,ENE,70,0.0,1.0,93,0.00,,,0.00,Wunderground v.1.15,2013-10-26 06:40:00,
2013-10-26 02:42:00,29.3,27.5,30.31,ENE,70,2.0,2.0,93,0.00,,,0.00,Wunderground v.1.15,2013-10-26 06:42:00,
2013-10-26 02:43:00,29.3,27.5,30.31,ENE,69,1.0,3.0,93,0.00,,,0.00,Wunderground v.1.15,2013-10-26 06:43:00,
2013-10-26 02:44:00,29.3,27.5,30.31,ENE,70,0.0,3.0,93,0.00,,,0.00,Wunderground v.1.15,2013-10-26 06:44:00,
2013-10-26 02:45:00,29.4,27.6,30.31,ENE,70,0.0,3.0,93,0.00,,,0.00,Wunderground v.1.15,2013-10-26 06:45:00,
2013-10-26 02:46:00,29.4,27.6,30.31,ENE,70,0.0,3.0,93,0.00,,,0.00,Wunderground v.1.15,2013-10-26 06:46:00,
2013-10-26 02:47:00,29.4,27.6,30.30,ENE,70,2.0,3.0,93,0.00,,,0.00,Wunderground v.1.15,2013-10-26 06:47:00,
2013-10-26 02:49:00,29.4,27.6,30.30,ENE,69,3.0,3.0,93,0.00,,,0.00,Wunderground v.1.15,2013-10-26 06:49:00,
2013-10-26 02:50:00,29.5,28.0,30.30,ENE,70,0.0,4.0,94,0.00,,,0.00,Wunderground v.1.15,2013-10-26 06:50:00,
2013-10-26 02:51:00,29.5,28.0,30.30,ENE,69,0.0,4.0,94,0.00,,,0.00,Wunderground v.1.15,2013-10-26 06:51:00,
2013-10-26 02:54:00,29.6,28.1,30.30,ENE,70,1.0,4.0,94,0.00,,,0.00,Wunderground v.1.15,2013-10-26 06:54:00,
2013-10-26 02:55:00,29.7,28.2,30.31,ENE,70,0.0,4.0,94,0.00,,,0.00,Wunderground v.1.15,2013-10-26 06:55:00,
2013-10-26 02:56:00,29.7,28.2,30.30,ENE,70,0.0,4.0,94,0.00,,,0.00,Wunderground v.1.15,2013-10-26 06:56:00,
2013-10-26 02:59:00,30.0,28.5,30.30,ENE,70,0.0,4.0,94,0.00,,,0.00,Wunderground v.1.15,2013-10-26 06:59:00,
2013-10-26 03:00:00,30.1,28.6,30.30,ENE,70,0.0,0.0,94,0.00,,,0.00,Wunderground v.1.15,2013-10-26 07:00:00,
2013-10-26 03:01:00,30.2,28.7,30.30,ENE,70,0.0,0.0,94,0.00,,,0.00,Wunderground v.1.15,2013-10-26 07:01:00,
2013-10-26 03:04:00,30.4,28.9,30.30,ENE,70,0.0,0.0,94,0.00,,,0.00,Wunderground v.1.15,2013-10-26 07:04:00,
2013-10-26 03:05:00,30.5,29.0,30.30,ENE,69,0.0,0.0,94,0.00,,,0.00,Wunderground v.1.15,2013-10-26 07:05:00,
2013-10-26 03:06:00,30.6,29.1,30.30,ENE,70,0.0,0.0,94,0.00,,,0.00,Wunderground v.1.15,2013-10-26 07:06:00,
2013-10-26 03:07:00,30.6,29.1,30.30,ENE,70,0.0,1.0,94,0.00,,,0.00,Wunderground v.1.15,2013-10-26 07:07:00,
2013-10-26 03:09:00,30.9,29.4,30.30,ENE,70,0.0,0.0,94,0.00,,,0.00,Wunderground v.1.15,2013-10-26 07:09:00,
2013-10-26 03:11:00,31.0,29.5,30.30,ENE,70,1.0,1.0,94,0.00,,,0.00,Wunderground v.1.15,2013-10-26 07:11:00,
2013-10-26 03:12:00,31.1,29.6,30.30,ENE,69,1.0,1.0,94,0.00,,,0.00,Wunderground v.1.15,2013-10-26 07:12:00,
2013-10-26 03:13:00,31.2,29.7,30.30,ENE,69,0.0,2.0,94,0.00,,,0.00,Wunderground v.1.15,2013-10-26 07:13:00,
2013-10-26 03:15:00,31.2,29.7,30.30,ENE,70,0.0,2.0,94,0.00,,,0.00,Wunderground v.1.15,2013-10-26 07:15:00,
2013-10-26 03:16:00,31.2,29.7,30.30,ENE,70,0.0,2.0,94,0.00,,,0.00,Wunderground v.1.15,2013-10-26 07:16:00,
2013-10-26 03:17:00,31.2,29.4,30.30,ENE,70,2.0,2.0,93,0.00,,,0.00,Wunderground v.1.15,2013-10-26 07:17:00,
2013-10-26 03:19:00,31.2,29.4,30.30,ENE,69,0.0,2.0,93,0.00,,,0.00,Wunderground v.1.15,2013-10-26 07:19:00,
2013-10-26 03:20:00,31.2,29.4,30.30,ENE,69,1.0,1.0,93,0.00,,,0.00,Wunderground v.1.15,2013-10-26 07:20:00,
2013-10-26 03:21:00,31.2,29.4,30.30,ENE,69,0.0,1.0,93,0.00,,,0.00,Wunderground v.1.15,2013-10-26 07:21:00,
2013-10-26 03:22:00,31.2,29.4,30.30,ENE,69,0.0,1.0,93,0.00,,,0.00,Wunderground v.1.15,2013-10-26 07:22:00,
2013-10-26 03:24:00,31.2,29.1,30.30,ENE,70,0.0,1.0,92,0.00,,,0.00,Wunderground v.1.15,2013-10-26 07:24:00,
2013-10-26 03:25:00,31.1,29.0,30.30,ENE,70,0.0,1.0,92,0.00,,,0.00,Wunderground v.1.15,2013-10-26 07:25:00,
2013-10-26 03:26:00,31.1,29.0,30.30,ENE,70,0.0,1.0,92,0.00,,,0.00,Wunderground v.1.15,2013-10-26 07:26:00,
2013-10-26 03:27:00,31.1,29.0,30.30,ENE,70,0.0,1.0,92,0.00,,,0.00,Wunderground v.1.15,2013-10-26 07:27:00,
2013-10-26 03:28:00,31.1,29.0,30.30,ENE,69,0.0,1.0,92,0.00,,,0.00,Wunderground v.1.15,2013-10-26 07:28:00,
2013-10-26 03:30:00,31.0,28.9,30.30,ENE,70,0.0,1.0,92,0.00,,,0.00,Wunderground v.1.15,2013-10-26 07:30:00,
2013-10-26 03:31:00,31.1,29.0,30.30,ENE,70,0.0,1.0,92,0.00,,,0.00,Wunderground v.1.15,2013-10-26 07:31:00,
2013-10-26 03:32:00,31.0,28.9,30.30,ENE,70,0.0,1.0,92,0.00,,,0.00,Wunderground v.1.15,2013-10-26 07:32:00,
2013-10-26 03:33:00,31.1,29.0,30.30,ENE,69,0.0,1.0,92,0.00,,,0.00,Wunderground v.1.15,2013-10-26 07:33:00,
2013-10-26 03:35:00,31.4,29.6,30.30,ENE,69,0.0,1.0,93,0.00,,,0.00,Wunderground v.1.15,2013-10-26 07:35:00,
2013-10-26 03:36:00,31.5,29.7,30.30,ENE,70,0.0,1.0,93,0.00,,,0.00,Wunderground v.1.15,2013-10-26 07:36:00,
2013-10-26 03:37:00,31.6,29.8,30.30,ENE,69,0.0,1.0,93,0.00,,,0.00,Wunderground v.1.15,2013-10-26 07:37:00,
2013-10-26 03:38:00,31.7,29.9,30.30,ENE,70,0.0,1.0,93,0.00,,,0.00,Wunderground v.1.15,2013-10-26 07:38:00,
2013-10-26 03:39:00,31.8,30.0,30.30,ENE,70,0.0,0.0,93,0.00,,,0.00,Wunderground v.1.15,2013-10-26 07:39:00,
2013-10-26 03:41:00,31.9,30.1,30.30,ENE,70,0.0,0.0,93,0.00,,,0.00,Wunderground v.1.15,2013-10-26 07:41:00,
2013-10-26 03:42:00,32.0,29.9,30.30,ENE,70,0.0,0.0,92,0.00,,,0.00,Wunderground v.1.15,2013-10-26 07:42:00,
2013-10-26 03:43:00,32.1,30.0,30.30,ENE,70,0.0,0.0,92,0.00,,,0.00,Wunderground v.1.15,2013-10-26 07:43:00,
2013-10-26 03:44:00,32.1,30.0,30.30,ENE,70,3.0,3.0,92,0.00,,,0.00,Wunderground v.1.15,2013-10-26 07:44:00,
2013-10-26 03:45:00,32.1,30.0,30.30,ENE,69,0.0,3.0,92,0.00,,,0.00,Wunderground v.1.15,2013-10-26 07:45:00,
2013-10-26 03:46:00,32.0,29.7,30.30,ENE,70,0.0,3.0,91,0.00,,,0.00,Wunderground v.1.15,2013-10-26 07:46:00,
2013-10-26 03:47:00,32.0,29.7,30.30,ENE,70,0.0,3.0,91,0.00,,,0.00,Wunderground v.1.15,2013-10-26 07:47:00,
2013-10-26 03:48:00,31.9,29.6,30.30,ENE,69,1.0,3.0,91,0.00,,,0.00,Wunderground v.1.15,2013-10-26 07:48:00,
2013-10-26 03:50:00,31.6,29.0,30.30,ENE,69,0.0,1.0,90,0.00,,,0.00,Wunderground v.1.15,2013-10-26 07:50:00,
2013-10-26 03:52:00,31.5,28.9,30.30,ENE,70,0.0,1.0,90,0.00,,,0.00,Wunderground v.1.15,2013-10-26 07:52:00,
2013-10-26 03:53:00,31.3,28.7,30.30,ENE,70,0.0,2.0,90,0.00,,,0.00,Wunderground v.1.15,2013-10-26 07:53:00,
2013-10-26 03:56:00,31.2,28.6,30.30,ENE,70,1.0,2.0,90,0.00,,,0.00,Wunderground v.1.15,2013-10-26 07:56:00,
2013-10-26 03:57:00,31.1,28.5,30.30,ENE,69,0.0,2.0,90,0.00,,,0.00,Wunderground v.1.15,2013-10-26 07:57:00,
2013-10-26 03:59:00,31.0,28.4,30.30,ENE,70,1.0,2.0,90,0.00,,,0.00,Wunderground v.1.15,2013-10-26 07:59:00,
2013-10-26 04:01:00,30.7,28.1,30.30,ENE,70,0.0,1.0,90,0.00,,,0.00,Wunderground v.1.15,2013-10-26 08:01:00,
2013-10-26 04:02:00,30.7,28.1,30.29,ENE,70,1.0,1.0,90,0.00,,,0.00,Wunderground v.1.15,2013-10-26 08:02:00,
2013-10-26 04:03:00,30.6,28.0,30.29,ENE,70,1.0,1.0,90,0.00,,,0.00,Wunderground v.1.15,2013-10-26 08:03:00,
2013-10-26 04:04:00,30.5,27.9,30.29,ENE,70,1.0,2.0,90,0.00,,,0.00,Wunderground v.1.15,2013-10-26 08:04:00,
2013-10-26 04:07:00,30.3,27.7,30.30,ENE,69,0.0,2.0,90,0.00,,,0.00,Wunderground v.1.15,2013-10-26 08:07:00,
2013-10-26 04:08:00,30.3,27.7,30.30,ENE,69,0.0,2.0,90,0.00,,,0.00,Wunderground v.1.15,2013-10-26 08:08:00,
2013-10-26 04:09:00,30.2,27.6,30.30,ENE,69,0.0,2.0,90,0.00,,,0.00,Wunderground v.1.15,2013-10-26 08:09:00,
2013-10-26 04:12:00,30.0,27.7,30.29,ENE,70,0.0,2.0,91,0.00,,,0.00,Wunderground v.1.15,2013-10-26 08:12:00,
2013-10-26 04:13:00,30.0,27.7,30.30,ENE,69,0.0,2.0,91,0.00,,,0.00,Wunderground v.1.15,2013-10-26 08:13:00,
2013-10-26 04:14:00,29.9,27.6,30.30,ENE,70,0.0,2.0,91,0.00,,,0.00,Wunderground v.1.15,2013-10-26 08:14:00,
2013-10-26 04:17:00,29.8,27.5,30.30,ENE,70,1.0,4.0,91,0.00,,,0.00,Wunderground v.1.15,2013-10-26 08:17:00,
2013-10-26 04:18:00,29.8,27.5,30.30,ENE,69,1.0,4.0,91,0.00,,,0.00,Wunderground v.1.15,2013-10-26 08:18:00,
2013-10-26 04:19:00,29.7,27.4,30.30,ENE,69,1.0,4.0,91,0.00,,,0.00,Wunderground v.1.15,2013-10-26 08:19:00,
2013-10-26 04:23:00,29.7,27.7,30.30,ENE,70,1.0,2.0,92,0.00,,,0.00,Wunderground v.1.15,2013-10-26 08:23:00,
2013-10-26 04:24:00,29.7,27.7,30.30,ENE,70,1.0,2.0,92,0.00,,,0.00,Wunderground v.1.15,2013-10-26 08:24:00,
2013-10-26 04:25:00,29.7,27.7,30.29,ENE,70,0.0,2.0,92,0.00,,,0.00,Wunderground v.1.15,2013-10-26 08:25:00,
2013-10-26 04:28:00,29.7,27.7,30.30,ENE,69,1.0,2.0,92,0.00,,,0.00,Wunderground v.1.15,2013-10-26 08:28:00,
2013-10-26 04:29:00,29.7,27.7,30.30,ENE,69,1.0,2.0,92,0.00,,,0.00,Wunderground v.1.15,2013-10-26 08:29:00,
2013-10-26 04:31:00,29.6,27.6,30.30,ENE,70,1.0,2.0,92,0.00,,,0.00,Wunderground v.1.15,2013-10-26 08:31:00,
2013-10-26 04:33:00,29.6,27.6,30.30,ENE,69,1.0,2.0,92,0.00,,,0.00,Wunderground v.1.15,2013-10-26 08:33:00,
2013-10-26 04:34:00,29.6,27.6,30.30,ENE,70,1.0,2.0,92,0.00,,,0.00,Wunderground v.1.15,2013-10-26 08:34:00,
2013-10-26 04:35:00,29.6,27.6,30.30,ENE,70,0.0,2.0,92,0.00,,,0.00,Wunderground v.1.15,2013-10-26 08:35:00,
2013-10-26 04:36:00,29.5,27.5,30.30,ENE,69,0.0,2.0,92,0.00,,,0.00,Wunderground v.1.15,2013-10-26 08:36:00,
2013-10-26 04:38:00,29.4,27.4,30.30,ENE,70,0.0,2.0,92,0.00,,,0.00,Wunderground v.1.15,2013-10-26 08:38:00,
2013-10-26 04:39:00,29.4,27.4,30.30,ENE,70,1.0,2.0,92,0.00,,,0.00,Wunderground v.1.15,2013-10-26 08:39:00,
2013-10-26 04:40:00,29.4,27.4,30.30,ENE,69,1.0,2.0,92,0.00,,,0.00,Wunderground v.1.15,2013-10-26 08:40:00,
2013-10-26 04:41:00,29.3,27.3,30.30,ENE,70,0.0,2.0,92,0.00,,,0.00,Wunderground v.1.15,2013-10-26 08:41:00,
2013-10-26 04:42:00,29.3,27.3,30.30,ENE,69,2.0,2.0,92,0.00,,,0.00,Wunderground v.1.15,2013-10-26 08:42:00,
2013-10-26 04:43:00,29.2,27.2,30.30,ENE,70,0.0,2.0,92,0.00,,,0.00,Wunderground v.1.15,2013-10-26 08:43:00,
2013-10-26 04:45:00,29.2,27.2,30.29,ENE,70,1.0,2.0,92,0.00,,,0.00,Wunderground v.1.15,2013-10-26 08:45:00,
2013-10-26 04:47:00,29.0,27.0,30.30,ENE,70,0.0,2.0,92,0.00,,,0.00,Wunderground v.1.15,2013-10-26 08:47:00,
2013-10-26 04:48:00,28.9,26.9,30.29,ENE,69,1.0,2.0,92,0.00,,,0.00,Wunderground v.1.15,2013-10-26 08:48:00,
2013-10-26 04:50:00,28.9,26.9,30.29,ENE,69,0.0,0.0,92,0.00,,,0.00,Wunderground v.1.15,2013-10-26 08:50:00,
2013-10-26 04:52:00,28.8,26.8,30.29,ENE,70,1.0,1.0,92,0.00,,,0.00,Wunderground v.1.15,2013-10-26 08:52:00,
2013-10-26 04:53:00,28.8,26.8,30.29,ENE,70,0.0,1.0,92,0.00,,,0.00,Wunderground v.1.15,2013-10-26 08:53:00,
2013-10-26 04:56:00,28.8,26.8,30.29,ENE,70,0.0,1.0,92,0.00,,,0.00,Wunderground v.1.15,2013-10-26 08:56:00,
2013-10-26 04:57:00,28.7,26.7,30.29,ENE,70,0.0,1.0,92,0.00,,,0.00,Wunderground v.1.15,2013-10-26 08:57:00,
2013-10-26 04:58:00,28.7,26.7,30.29,ENE,70,0.0,1.0,92,0.00,,,0.00,Wunderground v.1.15,2013-10-26 08:58:00,
2013-10-26 05:02:00,28.7,26.9,30.29,SE,128,0.0,2.0,93,0.00,,,0.00,Wunderground v.1.15,2013-10-26 09:02:00,
2013-10-26 05:03:00,28.7,26.9,30.29,SE,128,0.0,2.0,93,0.00,,,0.00,Wunderground v.1.15,2013-10-26 09:03:00,
2013-10-26 05:04:00,28.7,26.9,30.29,SE,128,0.0,2.0,93,0.00,,,0.00,Wunderground v.1.15,2013-10-26 09:04:00,
2013-10-26 05:07:00,28.8,27.0,30.30,SE,128,1.0,2.0,93,0.00,,,0.00,Wunderground v.1.15,2013-10-26 09:07:00,
2013-10-26 05:08:00,28.8,27.0,30.30,SE,128,0.0,2.0,93,0.00,,,0.00,Wunderground v.1.15,2013-10-26 09:08:00,
2013-10-26 05:09:00,28.8,27.0,30.30,SE,128,0.0,2.0,93,0.00,,,0.00,Wunderground v.1.15,2013-10-26 09:09:00,
2013-10-26 05:12:00,28.9,27.1,30.30,SE,128,0.0,2.0,93,0.00,,,0.00,Wunderground v.1.15,2013-10-26 09:12:00,
2013-10-26 05:14:00,29.0,27.2,30.30,SE,128,1.0,2.0,93,0.00,,,0.00,Wunderground v.1.15,2013-10-26 09:14:00,
2013-10-26 05:15:00,29.0,27.2,30.30,SE,128,1.0,2.0,93,0.00,,,0.00,Wunderground v.1.15,2013-10-26 09:15:00,
2013-10-26 05:17:00,29.1,27.3,30.30,SE,128,0.0,2.0,93,0.00,,,0.00,Wunderground v.1.15,2013-10-26 09:17:00,
2013-10-26 05:19:00,29.2,27.4,30.29,SE,128,0.0,2.0,93,0.00,,,0.00,Wunderground v.1.15,2013-10-26 09:19:00,
2013-10-26 05:20:00,29.2,27.4,30.29,SE,131,0.0,3.0,93,0.00,,,0.00,Wunderground v.1.15,2013-10-26 09:20:00,
2013-10-26 05:21:00,29.1,27.3,30.29,SE,131,0.0,3.0,93,0.00,,,0.00,Wunderground v.1.15,2013-10-26 09:21:00,
2013-10-26 05:22:00,29.1,27.3,30.29,SE,131,0.0,3.0,93,0.00,,,0.00,Wunderground v.1.15,2013-10-26 09:22:00,
2013-10-26 05:24:00,29.1,27.3,30.29,SE,131,1.0,3.0,93,0.00,,,0.00,Wunderground v.1.15,2013-10-26 09:24:00,
2013-10-26 05:25:00,29.1,27.3,30.29,SE,130,0.0,3.0,93,0.00,,,0.00,Wunderground v.1.15,2013-10-26 09:25:00,
2013-10-26 05:27:00,29.2,27.4,30.29,SE,131,1.0,3.0,93,0.00,,,0.00,Wunderground v.1.15,2013-10-26 09:27:00,
2013-10-26 05:29:00,29.1,27.3,30.29,SE,130,1.0,3.0,93,0.00,,,0.00,Wunderground v.1.15,2013-10-26 09:29:00,
2013-10-26 05:30:00,29.2,27.4,30.29,SE,131,0.0,1.0,93,0.00,,,0.00,Wunderground v.1.15,2013-10-26 09:30:00,
2013-10-26 05:32:00,29.5,28.0,30.30,SE,134,1.0,3.0,94,0.00,,,0.00,Wunderground v.1.15,2013-10-26 09:32:00,
2013-10-26 05:33:00,29.5,28.0,30.30,SE,134,1.0,3.0,94,0.00,,,0.00,Wunderground v.1.15,2013-10-26 09:33:00,
2013-10-26 05:34:00,29.6,28.1,30.30,SE,134,1.0,3.0,94,0.00,,,0.00,Wunderground v.1.15,2013-10-26 09:34:00,
2013-10-26 05:35:00,29.6,28.1,30.30,SE,134,1.0,3.0,94,0.00,,,0.00,Wunderground v.1.15,2013-10-26 09:35:00,
2013-10-26 05:38:00,29.7,27.9,30.29,SE,134,0.0,3.0,93,0.00,,,0.00,Wunderground v.1.15,2013-10-26 09:38:00,
2013-10-26 05:39:00,29.7,27.9,30.29,SE,134,0.0,1.0,93,0.00,,,0.00,Wunderground v.1.15,2013-10-26 09:39:00,
2013-10-26 05:40:00,29.8,28.0,30.29,SE,134,0.0,1.0,93,0.00,,,0.00,Wunderground v.1.15,2013-10-26 09:40:00,
2013-10-26 05:43:00,29.9,28.1,30.29,SE,134,0.0,2.0,93,0.00,,,0.00,Wunderground v.1.15,2013-10-26 09:43:00,
2013-10-26 05:44:00,30.0,28.2,30.29,SE,134,0.0,2.0,93,0.00,,,0.00,Wunderground v.1.15,2013-10-26 09:44:00,
2013-10-26 05:45:00,30.0,28.2,30.29,SE,134,0.0,2.0,93,0.00,,,0.00,Wunderground v.1.15,2013-10-26 09:45:00,
2013-10-26 05:49:00,30.2,28.4,30.29,SE,133,1.0,2.0,93,0.00,,,0.00,Wunderground v.1.15,2013-10-26 09:49:00,
2013-10-26 05:50:00,30.3,28.5,30.29,SE,134,0.0,2.0,93,0.00,,,0.00,Wunderground v.1.15,2013-10-26 09:50:00,
2013-10-26 05:51:00,30.5,29.0,30.29,SE,133,0.0,2.0,94,0.00,,,0.00,Wunderground v.1.15,2013-10-26 09:51:00,
2013-10-26 05:54:00,30.9,29.4,30.30,SE,134,0.0,2.0,94,0.00,,,0.00,Wunderground v.1.15,2013-10-26 09:54:00,
2013-10-26 05:55:00,31.1,29.6,30.30,SE,134,0.0,2.0,94,0.00,,,0.00,Wunderground v.1.15,2013-10-26 09:55:00,
2013-10-26 05:56:00,31.2,29.7,30.30,SE,134,0.0,2.0,94,0.00,,,0.00,Wunderground v.1.15,2013-10-26 09:56:00,
2013-10-26 05:59:00,31.6,29.8,30.30,South,184,0.0,0.0,93,0.00,,,0.00,Wunderground v.1.15,2013-10-26 09:59:00,
2013-10-26 06:01:00,31.8,29.7,30.29,South,186,3.0,3.0,92,0.00,,,0.00,Wunderground v.1.15,2013-10-26 10:01:00,
2013-10-26 06:02:00,32.1,30.3,30.29,SE,140,0.0,5.0,93,0.00,,,0.00,Wunderground v.1.15,2013-10-26 10:02:00,
2013-10-26 06:04:00,32.6,30.5,30.29,SSW,194,1.0,5.0,92,0.00,,,0.00,Wunderground v.1.15,2013-10-26 10:04:00,
2013-10-26 06:06:00,32.8,30.2,30.29,SSW,194,0.0,5.0,90,0.00,,,0.00,Wunderground v.1.15,2013-10-26 10:06:00,
2013-10-26 06:07:00,32.8,30.2,30.29,SSW,194,1.0,5.0,90,0.00,,,0.00,Wunderground v.1.15,2013-10-26 10:07:00,
2013-10-26 06:09:00,32.8,29.9,30.29,SSW,201,3.0,3.0,89,0.00,,,0.00,Wunderground v.1.15,2013-10-26 10:09:00,
2013-10-26 06:11:00,33.1,30.2,30.29,SW,227,0.0,6.0,89,0.00,,,0.00,Wunderground v.1.15,2013-10-26 10:11:00,
2013-10-26 06:12:00,33.2,30.3,30.29,SW,227,1.0,6.0,89,0.00,,,0.00,Wunderground v.1.15,2013-10-26 10:12:00,
2013-10-26 06:13:00,33.4,30.5,30.30,SW,219,0.0,6.0,89,0.00,,,0.00,Wunderground v.1.15,2013-10-26 10:13:00,
2013-10-26 06:15:00,33.4,29.9,30.29,SW,219,0.0,6.0,87,0.00,,,0.00,Wunderground v.1.15,2013-10-26 10:15:00,
2013-10-26 06:16:00,33.2,29.5,30.29,SW,232,4.0,6.0,86,0.00,,,0.00,Wunderground v.1.15,2013-10-26 10:16:00,
2013-10-26 06:17:00,33.2,29.5,30.29,WSW,249,3.0,6.0,86,0.00,,,0.00,Wunderground v.1.15,2013-10-26 10:17:00,
2013-10-26 06:18:00,33.4,29.9,30.29,South,190,3.0,9.0,87,0.00,,,0.00,Wunderground v.1.15,2013-10-26 10:18:00,
2013-10-26 06:20:00,33.5,29.8,30.29,South,190,0.0,2.0,86,0.00,,,0.00,Wunderground v.1.15,2013-10-26 10:20:00,
2013-10-26 06:21:00,33.6,29.9,30.29,South,190,2.0,2.0,86,0.00,,,0.00,Wunderground v.1.15,2013-10-26 10:21:00,
2013-10-26 06:22:00,33.6,29.6,30.30,South,190,2.0,2.0,85,0.00,,,0.00,Wunderground v.1.15,2013-10-26 10:22:00,
2013-10-26 06:23:00,33.5,29.5,30.29,South,190,0.0,2.0,85,0.00,,,0.00,Wunderground v.1.15,2013-10-26 10:23:00,
2013-10-26 06:25:00,33.5,29.5,30.29,South,190,0.0,2.0,85,0.00,,,0.00,Wunderground v.1.15,2013-10-26 10:25:00,
2013-10-26 06:27:00,33.5,29.8,30.29,South,190,0.0,2.0,86,0.00,,,0.00,Wunderground v.1.15,2013-10-26 10:27:00,
2013-10-26 06:28:00,33.4,29.7,30.29,South,190,0.0,2.0,86,0.00,,,0.00,Wunderground v.1.15,2013-10-26 10:28:00,
2013-10-26 06:29:00,33.4,29.7,30.29,South,190,1.0,2.0,86,0.00,,,0.00,Wunderground v.1.15,2013-10-26 10:29:00,
2013-10-26 06:31:00,33.3,29.3,30.29,South,191,0.0,1.0,85,0.00,,,0.00,Wunderground v.1.15,2013-10-26 10:31:00,
2013-10-26 06:32:00,33.2,29.5,30.30,South,191,0.0,2.0,86,0.00,,,0.00,Wunderground v.1.15,2013-10-26 10:32:00,
2013-10-26 06:33:00,33.0,29.3,30.30,South,191,1.0,3.0,86,0.00,,,0.00,Wunderground v.1.15,2013-10-26 10:33:00,
2013-10-26 06:34:00,32.9,29.2,30.30,South,191,1.0,3.0,86,0.00,,,0.00,Wunderground v.1.15,2013-10-26 10:34:00,
2013-10-26 06:36:00,32.6,28.9,30.30,SSW,192,1.0,3.0,86,0.00,,,0.00,Wunderground v.1.15,2013-10-26 10:36:00,
2013-10-26 06:37:00,32.3,28.6,30.30,South,191,1.0,3.0,86,0.00,,,0.00,Wunderground v.1.15,2013-10-26 10:37:00,
2013-10-26 06:39:00,32.0,28.3,30.30,SSW,192,1.0,3.0,86,0.00,,,0.00,Wunderground v.1.15,2013-10-26 10:39:00,
2013-10-26 06:41:00,31.7,28.0,30.30,SSW,192,0.0,1.0,86,0.00,,,0.00,Wunderground v.1.15,2013-10-26 10:41:00,
2013-10-26 06:42:00,31.6,28.2,30.29,SSW,192,2.0,2.0,87,0.00,,,0.00,Wunderground v.1.15,2013-10-26 10:42:00,
2013-10-26 06:44:00,31.4,28.0,30.30,South,191,2.0,2.0,87,0.00,,,0.00,Wunderground v.1.15,2013-10-26 10:44:00,
2013-10-26 06:46:00,31.1,27.7,30.29,South,190,1.0,3.0,87,0.00,,,0.00,Wunderground v.1.15,2013-10-26 10:46:00,
2013-10-26 06:47:00,30.8,27.4,30.30,South,190,2.0,3.0,87,0.00,,,0.00,Wunderground v.1.15,2013-10-26 10:47:00,
2013-10-26 06:48:00,30.8,27.4,30.30,South,190,2.0,3.0,87,0.00,,,0.00,Wunderground v.1.15,2013-10-26 10:48:00,
2013-10-26 06:49:00,30.5,27.1,30.30,South,190,2.0,2.0,87,0.00,,,0.00,Wunderground v.1.15,2013-10-26 10:49:00,
2013-10-26 06:50:00,30.4,27.0,30.30,South,190,1.0,2.0,87,0.00,,,0.00,Wunderground v.1.15,2013-10-26 10:50:00,
2013-10-26 06:51:00,30.3,27.2,30.30,South,190,1.0,2.0,88,0.00,,,0.00,Wunderground v.1.15,2013-10-26 10:51:00,
2013-10-26 06:53:00,30.1,27.0,30.30,South,190,0.0,3.0,88,0.00,,,0.00,Wunderground v.1.15,2013-10-26 10:53:00,
2013-10-26 06:54:00,29.9,26.8,30.29,South,190,0.0,3.0,88,0.00,,,0.00,Wunderground v.1.15,2013-10-26 10:54:00,
2013-10-26 06:55:00,29.8,26.7,30.30,South,190,0.0,3.0,88,0.00,,,0.00,Wunderground v.1.15,2013-10-26 10:55:00,
2013-10-26 06:56:00,29.7,26.6,30.29,South,190,1.0,3.0,88,0.00,,,0.00,Wunderground v.1.15,2013-10-26 10:56:00,
2013-10-26 06:58:00,29.6,26.8,30.29,South,190,0.0,3.0,89,0.00,,,0.00,Wunderground v.1.15,2013-10-26 10:58:00,
2013-10-26 06:59:00,29.5,26.7,30.29,South,190,0.0,3.0,89,0.00,,,0.00,Wunderground v.1.15,2013-10-26 10:59:00,
2013-10-26 07:00:00,29.5,26.7,30.29,South,191,3.0,4.0,89,0.00,,,0.00,Wunderground v.1.15,2013-10-26 11:00:00,
2013-10-26 07:02:00,29.4,26.6,30.30,South,190,1.0,4.0,89,0.00,,,0.00,Wunderground v.1.15,2013-10-26 11:02:00,
2013-10-26 07:03:00,29.3,26.7,30.30,South,191,2.0,4.0,90,0.00,,,0.00,Wunderground v.1.15,2013-10-26 11:03:00,
2013-10-26 07:04:00,29.3,26.7,30.30,South,191,2.0,4.0,90,0.00,,,0.00,Wunderground v.1.15,2013-10-26 11:04:00,
2013-10-26 07:05:00,29.2,26.6,30.30,South,191,1.0,4.0,90,0.00,,,0.00,Wunderground v.1.15,2013-10-26 11:05:00,
2013-10-26 07:06:00,29.2,26.6,30.30,South,191,2.0,4.0,90,0.00,,,0.00,Wunderground v.1.15,2013-10-26 11:06:00,
2013-10-26 07:07:00,29.2,26.6,30.30,South,191,2.0,4.0,90,0.00,,,0.00,Wunderground v.1.15,2013-10-26 11:07:00,
2013-10-26 07:08:00,29.1,26.5,30.31,South,191,2.0,4.0,90,0.00,,,0.00,Wunderground v.1.15,2013-10-26 11:08:00,
2013-10-26 07:09:00,29.0,26.4,30.31,South,191,0.0,2.0,90,0.00,,,0.00,Wunderground v.1.15,2013-10-26 11:09:00,
2013-10-26 07:10:00,29.0,26.4,30.31,South,191,1.0,2.0,90,0.00,,,0.00,Wunderground v.1.15,2013-10-26 11:10:00,
2013-10-26 07:11:00,28.9,26.3,30.31,South,191,0.0,2.0,90,0.00,,,0.00,Wunderground v.1.15,2013-10-26 11:11:00,
2013-10-26 07:12:00,28.9,26.3,30.30,South,191,1.0,2.0,90,0.00,,,0.00,Wunderground v.1.15,2013-10-26 11:12:00,
2013-10-26 07:13:00,28.9,26.3,30.30,South,191,0.0,2.0,90,0.00,,,0.00,Wunderground v.1.15,2013-10-26 11:13:00,
2013-10-26 07:14:00,28.8,26.5,30.30,South,191,2.0,4.0,91,0.00,,,0.00,Wunderground v.1.15,2013-10-26 11:14:00,
2013-10-26 07:15:00,28.7,26.1,30.30,South,191,0.0,4.0,90,0.00,,,0.00,Wunderground v.1.15,2013-10-26 11:15:00,
2013-10-26 07:16:00,28.7,26.1,30.30,South,191,1.0,4.0,90,0.00,,,0.00,Wunderground v.1.15,2013-10-26 11:16:00,
2013-10-26 07:18:00,28.6,26.3,30.30,SSW,203,3.0,4.0,91,0.00,,,0.00,Wunderground v.1.15,2013-10-26 11:18:00,
2013-10-26 07:21:00,28.5,26.2,30.31,SSW,203,2.0,3.0,91,0.00,,,0.00,Wunderground v.1.15,2013-10-26 11:21:00,
2013-10-26 07:23:00,28.5,26.2,30.31,SSW,204,1.0,3.0,91,0.00,,,0.00,Wunderground v.1.15,2013-10-26 11:23:00,
2013-10-26 07:24:00,28.4,26.1,30.31,SSW,202,0.0,3.0,91,0.00,,,0.00,Wunderground v.1.15,2013-10-26 11:24:00,
2013-10-26 07:26:00,28.4,26.1,30.31,SSW,205,4.0,4.0,91,0.00,,,0.00,Wunderground v.1.15,2013-10-26 11:26:00,
2013-10-26 07:27:00,28.3,26.3,30.31,SSW,205,2.0,4.0,92,0.00,,,0.00,Wunderground v.1.15,2013-10-26 11:27:00,
2013-10-26 07:28:00,28.3,26.3,30.31,SSW,205,0.0,4.0,92,0.00,,,0.00,Wunderground v.1.15,2013-10-26 11:28:00,
2013-10-26 07:29:00,28.3,26.3,30.31,SSW,205,1.0,4.0,92,0.00,,,0.00,Wunderground v.1.15,2013-10-26 11:29:00,
2013-10-26 07:30:00,28.3,26.3,30.31,SSW,205,0.0,1.0,92,0.00,,,0.00,Wunderground v.1.15,2013-10-26 11:30:00,
2013-10-26 07:31:00,28.3,26.3,30.31,SSW,205,2.0,2.0,92,0.00,,,0.00,Wunderground v.1.15,2013-10-26 11:31:00,
2013-10-26 07:32:00,28.2,26.2,30.31,SSW,205,0.0,2.0,92,0.00,,,0.00,Wunderground v.1.15,2013-10-26 11:32:00,
2013-10-26 07:33:00,28.2,26.2,30.31,SSW,205,2.0,2.0,92,0.00,,,0.00,Wunderground v.1.15,2013-10-26 11:33:00,
2013-10-26 07:34:00,28.2,26.2,30.31,SSW,205,2.0,4.0,92,0.00,,,0.00,Wunderground v.1.15,2013-10-26 11:34:00,
2013-10-26 07:35:00,28.2,26.2,30.31,SSW,205,1.0,4.0,92,0.00,,,0.00,Wunderground v.1.15,2013-10-26 11:35:00,
2013-10-26 07:36:00,28.1,26.1,30.31,SSW,205,0.0,4.0,92,0.00,,,0.00,Wunderground v.1.15,2013-10-26 11:36:00,
2013-10-26 07:37:00,28.1,26.1,30.31,SSW,205,0.0,4.0,92,0.00,,,0.00,Wunderground v.1.15,2013-10-26 11:37:00,
2013-10-26 07:38:00,28.1,26.1,30.31,SSW,205,1.0,4.0,92,0.00,,,0.00,Wunderground v.1.15,2013-10-26 11:38:00,
2013-10-26 07:39:00,28.1,26.1,30.31,SSW,205,1.0,1.0,92,0.00,,,0.00,Wunderground v.1.15,2013-10-26 11:39:00,
2013-10-26 07:40:00,28.1,26.1,30.31,SSW,205,1.0,1.0,92,0.00,,,0.00,Wunderground v.1.15,2013-10-26 11:40:00,
2013-10-26 07:41:00,28.1,26.1,30.31,SSW,205,0.0,1.0,92,0.00,,,0.00,Wunderground v.1.15,2013-10-26 11:41:00,
2013-10-26 07:42:00,28.0,26.0,30.31,SSW,205,0.0,1.0,92,0.00,,,0.00,Wunderground v.1.15,2013-10-26 11:42:00,
2013-10-26 07:44:00,28.0,26.0,30.31,SSW,205,2.0,2.0,92,0.00,,,0.00,Wunderground v.1.15,2013-10-26 11:44:00,
2013-10-26 07:45:00,28.0,26.0,30.31,SSW,205,1.0,2.0,92,0.00,,,0.00,Wunderground v.1.15,2013-10-26 11:45:00,
2013-10-26 07:46:00,27.9,25.9,30.31,South,178,0.0,5.0,92,0.00,,,0.00,Wunderground v.1.15,2013-10-26 11:46:00,
2013-10-26 07:47:00,28.0,26.0,30.31,South,184,0.0,5.0,92,0.00,,,0.00,Wunderground v.1.15,2013-10-26 11:47:00,
2013-10-26 07:49:00,28.0,26.2,30.31,South,184,0.0,5.0,93,0.00,,,0.00,Wunderground v.1.15,2013-10-26 11:49:00,
2013-10-26 07:50:00,28.1,26.3,30.31,South,184,0.0,1.0,93,0.00,,,0.00,Wunderground v.1.15,2013-10-26 11:50:00,
2013-10-26 07:51:00,28.1,26.3,30.31,South,184,0.0,1.0,93,0.00,,,0.00,Wunderground v.1.15,2013-10-26 11:51:00,
2013-10-26 07:52:00,28.1,26.3,30.31,South,184,0.0,1.0,93,0.00,,,0.00,Wunderground v.1.15,2013-10-26 11:52:00,
2013-10-26 07:54:00,28.1,26.3,30.31,South,184,1.0,2.0,93,0.00,,,0.00,Wunderground v.1.15,2013-10-26 11:54:00,
2013-10-26 07:56:00,28.1,26.3,30.31,South,184,0.0,3.0,93,0.00,,,0.00,Wunderground v.1.15,2013-10-26 11:56:00,
2013-10-26 07:57:00,28.1,26.3,30.31,South,184,1.0,3.0,93,0.00,,,0.00,Wunderground v.1.15,2013-10-26 11:57:00,
2013-10-26 07:58:00,28.1,26.3,30.31,South,184,0.0,3.0,93,0.00,,,0.00,Wunderground v.1.15,2013-10-26 11:58:00,
2013-10-26 07:59:00,28.0,26.2,30.31,South,184,2.0,3.0,93,0.00,,,0.00,Wunderground v.1.15,2013-10-26 11:59:00,
2013-10-26 08:01:00,28.0,26.2,30.31,South,188,2.0,3.0,93,0.00,,,0.00,Wunderground v.1.15,2013-10-26 12:01:00,
2013-10-26 08:03:00,28.0,26.2,30.31,South,190,0.0,3.0,93,0.00,,,0.00,Wunderground v.1.15,2013-10-26 12:03:00,
2013-10-26 08:04:00,28.0,26.2,30.31,South,190,3.0,3.0,93,0.00,,,0.00,Wunderground v.1.15,2013-10-26 12:04:00,
2013-10-26 08:06:00,28.0,26.2,30.31,SSW,192,2.0,3.0,93,0.00,,,0.00,Wunderground v.1.15,2013-10-26 12:06:00,
2013-10-26 08:07:00,28.0,26.2,30.31,SSW,192,1.0,3.0,93,0.00,,,0.00,Wunderground v.1.15,2013-10-26 12:07:00,
2013-10-26 08:08:00,28.0,26.2,30.31,SSW,192,1.0,3.0,93,0.00,,,0.00,Wunderground v.1.15,2013-10-26 12:08:00,
2013-10-26 08:09:00,28.0,26.2,30.31,SSW,192,0.0,3.0,93,0.00,,,0.00,Wunderground v.1.15,2013-10-26 12:09:00,
2013-10-26 08:10:00,28.0,26.2,30.31,SSW,192,0.0,1.0,93,0.00,,,0.00,Wunderground v.1.15,2013-10-26 12:10:00,
2013-10-26 08:11:00,28.0,26.2,30.31,South,191,0.0,1.0,93,0.00,,,0.00,Wunderground v.1.15,2013-10-26 12:11:00,
2013-10-26 08:12:00,28.0,26.2,30.31,SSW,192,1.0,1.0,93,0.00,,,0.00,Wunderground v.1.15,2013-10-26 12:12:00,
2013-10-26 08:13:00,28.0,26.2,30.31,SSW,192,1.0,2.0,93,0.00,,,0.00,Wunderground v.1.15,2013-10-26 12:13:00,
2013-10-26 08:14:00,28.0,26.2,30.31,South,191,0.0,2.0,93,0.00,,,0.00,Wunderground v.1.15,2013-10-26 12:14:00,
2013-10-26 08:15:00,28.0,26.2,30.31,South,191,0.0,2.0,93,0.00,,,0.00,Wunderground v.1.15,2013-10-26 12:15:00,
2013-10-26 08:17:00,28.0,26.2,30.31,SSW,192,0.0,2.0,93,0.00,,,0.00,Wunderground v.1.15,2013-10-26 12:17:00,
2013-10-26 08:18:00,28.0,26.2,30.31,SSW,192,0.0,2.0,93,0.00,,,0.00,Wunderground v.1.15,2013-10-26 12:18:00,
2013-10-26 08:19:00,28.0,26.2,30.31,SSW,192,0.0,2.0,93,0.00,,,0.00,Wunderground v.1.15,2013-10-26 12:19:00,
2013-10-26 08:20:00,28.0,26.2,30.31,South,191,0.0,0.0,93,0.00,,,0.00,Wunderground v.1.15,2013-10-26 12:20:00,
2013-10-26 08:22:00,28.0,26.2,30.31,SSW,192,1.0,1.0,93,0.00,,,0.00,Wunderground v.1.15,2013-10-26 12:22:00,
2013-10-26 08:24:00,27.9,26.1,30.31,SSW,192,0.0,1.0,93,0.00,,,0.00,Wunderground v.1.15,2013-10-26 12:24:00,
2013-10-26 08:25:00,28.0,26.2,30.31,SSW,192,0.0,1.0,93,0.00,,,0.00,Wunderground v.1.15,2013-10-26 12:25:00,
2013-10-26 08:26:00,28.0,26.2,30.31,South,191,0.0,1.0,93,0.00,,,0.00,Wunderground v.1.15,2013-10-26 12:26:00,
2013-10-26 08:28:00,28.0,26.2,30.31,SSW,192,0.0,1.0,93,0.00,,,0.00,Wunderground v.1.15,2013-10-26 12:28:00,
2013-10-26 08:29:00,28.0,26.2,30.31,South,191,0.0,0.0,93,0.00,,,0.00,Wunderground v.1.15,2013-10-26 12:29:00,
2013-10-26 08:30:00,28.0,26.2,30.31,SSW,192,0.0,0.0,93,0.00,,,0.00,Wunderground v.1.15,2013-10-26 12:30:00,
2013-10-26 08:31:00,28.0,26.2,30.31,SSW,192,0.0,0.0,93,0.00,,,0.00,Wunderground v.1.15,2013-10-26 12:31:00,
2013-10-26 08:32:00,28.0,26.2,30.31,South,191,0.0,0.0,93,0.00,,,0.00,Wunderground v.1.15,2013-10-26 12:32:00,
2013-10-26 08:34:00,28.0,26.2,30.32,SSW,192,0.0,0.0,93,0.00,,,0.00,Wunderground v.1.15,2013-10-26 12:34:00,
2013-10-26 08:35:00,28.0,26.2,30.32,SSW,192,0.0,0.0,93,0.00,,,0.00,Wunderground v.1.15,2013-10-26 12:35:00,
2013-10-26 08:36:00,28.0,26.2,30.32,SSW,192,0.0,0.0,93,0.00,,,0.00,Wunderground v.1.15,2013-10-26 12:36:00,
2013-10-26 08:37:00,28.0,26.2,30.31,SSW,192,0.0,1.0,93,0.00,,,0.00,Wunderground v.1.15,2013-10-26 12:37:00,
2013-10-26 08:39:00,28.1,26.6,30.32,SSW,192,0.0,1.0,94,0.00,,,0.00,Wunderground v.1.15,2013-10-26 12:39:00,
2013-10-26 08:40:00,28.1,26.6,30.32,SSW,192,1.0,1.0,94,0.00,,,0.00,Wunderground v.1.15,2013-10-26 12:40:00,
2013-10-26 08:42:00,28.3,26.8,30.32,SSW,192,0.0,1.0,94,0.00,,,0.00,Wunderground v.1.15,2013-10-26 12:42:00,
2013-10-26 08:43:00,28.3,26.8,30.32,South,191,0.0,1.0,94,0.00,,,0.00,Wunderground v.1.15,2013-10-26 12:43:00,
2013-10-26 08:44:00,28.3,26.8,30.32,SSW,192,0.0,2.0,94,0.00,,,0.00,Wunderground v.1.15,2013-10-26 12:44:00,
2013-10-26 08:45:00,28.4,26.9,30.32,SSW,192,0.0,2.0,94,0.00,,,0.00,Wunderground v.1.15,2013-10-26 12:45:00,
2013-10-26 08:48:00,28.5,27.0,30.32,SSW,192,1.0,2.0,94,0.00,,,0.00,Wunderground v.1.15,2013-10-26 12:48:00,
2013-10-26 08:49:00,28.6,27.1,30.32,SSW,192,0.0,2.0,94,0.00,,,0.00,Wunderground v.1.15,2013-10-26 12:49:00,
2013-10-26 08:51:00,28.7,27.2,30.32,SSW,192,0.0,2.0,94,0.00,,,0.00,Wunderground v.1.15,2013-10-26 12:51:00,
2013-10-26 08:53:00,28.8,27.3,30.32,SSW,192,0.0,2.0,94,0.00,,,0.00,Wunderground v.1.15,2013-10-26 12:53:00,
2013-10-26 08:54:00,28.9,27.4,30.32,South,191,0.0,2.0,94,0.00,,,0.00,Wunderground v.1.15,2013-10-26 12:54:00,
2013-10-26 08:55:00,28.9,27.4,30.32,SSW,192,0.0,2.0,94,0.00,,,0.00,Wunderground v.1.15,2013-10-26 12:55:00,
2013-10-26 08:56:00,29.0,27.5,30.32,South,191,1.0,2.0,94,0.00,,,0.00,Wunderground v.1.15,2013-10-26 12:56:00,
2013-10-26 08:58:00,29.2,27.7,30.33,South,191,2.0,3.0,94,0.00,,,0.00,Wunderground v.1.15,2013-10-26 12:58:00,
2013-10-26 09:00:00,29.4,27.9,30.32,South,191,1.0,2.0,94,0.00,,,0.00,Wunderground v.1.15,2013-10-26 13:00:00,
2013-10-26 09:01:00,29.5,28.2,30.32,South,191,0.0,3.0,95,0.00,,,0.00,Wunderground v.1.15,2013-10-26 13:01:00,
2013-10-26 09:02:00,29.6,28.3,30.33,SSW,192,1.0,3.0,95,0.00,,,0.00,Wunderground v.1.15,2013-10-26 13:02:00,
2013-10-26 09:03:00,29.7,28.4,30.32,SSW,192,1.0,3.0,95,0.00,,,0.00,Wunderground v.1.15,2013-10-26 13:03:00,
2013-10-26 09:05:00,29.9,28.4,30.32,SSW,192,0.0,3.0,94,0.00,,,0.00,Wunderground v.1.15,2013-10-26 13:05:00,
2013-10-26 09:06:00,30.0,28.5,30.32,South,191,1.0,3.0,94,0.00,,,0.00,Wunderground v.1.15,2013-10-26 13:06:00,
2013-10-26 09:07:00,30.0,28.5,30.32,SSW,192,1.0,3.0,94,0.00,,,0.00,Wunderground v.1.15,2013-10-26 13:07:00,
2013-10-26 09:08:00,30.1,28.6,30.32,SSW,192,3.0,3.0,94,0.00,,,0.00,Wunderground v.1.15,2013-10-26 13:08:00,
2013-10-26 09:10:00,30.2,28.7,30.33,SSW,192,2.0,2.0,94,0.00,,,0.00,Wunderground v.1.15,2013-10-26 13:10:00,
2013-10-26 09:11:00,30.3,28.8,30.32,SSW,194,2.0,4.0,94,0.00,,,0.00,Wunderground v.1.15,2013-10-26 13:11:00,
2013-10-26 09:12:00,30.4,28.9,30.32,SSW,194,2.0,4.0,94,0.00,,,0.00,Wunderground v.1.15,2013-10-26 13:12:00,
2013-10-26 09:13:00,30.5,29.0,30.32,SSW,194,2.0,4.0,94,0.00,,,0.00,Wunderground v.1.15,2013-10-26 13:13:00,
2013-10-26 09:14:00,30.5,29.0,30.32,SSW,194,3.0,4.0,94,0.00,,,0.00,Wunderground v.1.15,2013-10-26 13:14:00,
2013-10-26 09:15:00,30.6,29.1,30.33,SSW,194,3.0,4.0,94,0.00,,,0.00,Wunderground v.1.15,2013-10-26 13:15:00,
2013-10-26 09:16:00,30.6,29.1,30.33,SSW,194,0.0,4.0,94,0.00,,,0.00,Wunderground v.1.15,2013-10-26 13:16:00,
2013-10-26 09:18:00,30.7,29.2,30.33,SSW,194,1.0,4.0,94,0.00,,,0.00,Wunderground v.1.15,2013-10-26 13:18:00,
2013-10-26 09:20:00,30.8,29.0,30.33,SSW,194,0.0,2.0,93,0.00,,,0.00,Wunderground v.1.15,2013-10-26 13:20:00,
2013-10-26 09:21:00,30.9,29.1,30.33,SSW,194,1.0,2.0,93,0.00,,,0.00,Wunderground v.1.15,2013-10-26 13:21:00,
2013-10-26 09:23:00,31.0,29.2,30.33,SSW,194,2.0,3.0,93,0.00,,,0.00,Wunderground v.1.15,2013-10-26 13:23:00,
2013-10-26 09:25:00,31.1,29.3,30.33,SSW,194,1.0,3.0,93,0.00,,,0.00,Wunderground v.1.15,2013-10-26 13:25:00,
2013-10-26 09:26:00,31.2,29.4,30.33,SSW,194,1.0,3.0,93,0.00,,,0.00,Wunderground v.1.15,2013-10-26 13:26:00,
2013-10-26 09:28:00,31.2,29.4,30.33,SSW,194,1.0,3.0,93,0.00,,,0.00,Wunderground v.1.15,2013-10-26 13:28:00,
2013-10-26 09:29:00,31.3,29.5,30.33,SSW,194,1.0,3.0,93,0.00,,,0.00,Wunderground v.1.15,2013-10-26 13:29:00,
2013-10-26 09:30:00,31.4,29.6,30.33,SSW,194,0.0,2.0,93,0.00,,,0.00,Wunderground v.1.15,2013-10-26 13:30:00,
2013-10-26 09:32:00,31.4,29.6,30.33,SSW,194,1.0,3.0,93,0.00,,,0.00,Wunderground v.1.15,2013-10-26 13:32:00,
2013-10-26 09:33:00,31.5,29.4,30.33,SSW,194,2.0,3.0,92,0.00,,,0.00,Wunderground v.1.15,2013-10-26 13:33:00,
2013-10-26 09:34:00,31.6,29.5,30.33,SSW,194,3.0,3.0,92,0.00,,,0.00,Wunderground v.1.15,2013-10-26 13:34:00,
2013-10-26 09:35:00,31.7,29.6,30.33,SSW,195,2.0,3.0,92,0.00,,,0.00,Wunderground v.1.15,2013-10-26 13:35:00,
2013-10-26 09:37:00,31.7,29.6,30.33,SSW,196,0.0,3.0,92,0.00,,,0.00,Wunderground v.1.15,2013-10-26 13:37:00,
2013-10-26 09:38:00,31.8,29.7,30.33,SSW,195,2.0,3.0,92,0.00,,,0.00,Wunderground v.1.15,2013-10-26 13:38:00,
2013-10-26 09:39:00,31.9,29.8,30.33,SSW,195,0.0,3.0,92,0.00,,,0.00,Wunderground v.1.15,2013-10-26 13:39:00,
2013-10-26 09:40:00,31.9,29.8,30.32,SSW,196,1.0,2.0,92,0.00,,,0.00,Wunderground v.1.15,2013-10-26 13:40:00,
2013-10-26 09:41:00,32.0,29.9,30.32,SSW,196,1.0,2.0,92,0.00,,,0.00,Wunderground v.1.15,2013-10-26 13:41:00,
2013-10-26 09:42:00,32.1,30.0,30.33,SSW,196,2.0,3.0,92,0.00,,,0.00,Wunderground v.1.15,2013-10-26 13:42:00,
2013-10-26 09:43:00,32.1,30.0,30.33,SSW,196,2.0,3.0,92,0.00,,,0.00,Wunderground v.1.15,2013-10-26 13:43:00,
2013-10-26 09:44:00,32.2,30.1,30.33,SSW,195,1.0,3.0,92,0.00,,,0.00,Wunderground v.1.15,2013-10-26 13:44:00,
2013-10-26 09:45:00,32.3,30.2,30.33,SSW,196,0.0,3.0,92,0.00,,,0.00,Wunderground v.1.15,2013-10-26 13:45:00,
2013-10-26 09:46:00,32.3,30.2,30.33,SSW,195,1.0,3.0,92,0.00,,,0.00,Wunderground v.1.15,2013-10-26 13:46:00,
2013-10-26 09:47:00,32.5,30.4,30.32,SSW,196,2.0,3.0,92,0.00,,,0.00,Wunderground v.1.15,2013-10-26 13:47:00,
2013-10-26 09:48:00,32.6,30.5,30.33,SSW,196,2.0,3.0,92,0.00,,,0.00,Wunderground v.1.15,2013-10-26 13:48:00,
2013-10-26 09:49:00,32.8,30.7,30.32,SSW,195,2.0,3.0,92,0.00,,,0.00,Wunderground v.1.15,2013-10-26 13:49:00,
2013-10-26 09:51:00,32.9,30.8,30.33,SSW,195,1.0,3.0,92,0.00,,,0.00,Wunderground v.1.15,2013-10-26 13:51:00,
2013-10-26 09:52:00,33.0,30.7,30.32,SSW,195,0.0,3.0,91,0.00,,,0.00,Wunderground v.1.15,2013-10-26 13:52:00,
2013-10-26 09:53:00,33.1,31.0,30.33,SSW,195,0.0,3.0,92,0.00,,,0.00,Wunderground v.1.15,2013-10-26 13:53:00,
2013-10-26 09:55:00,33.3,31.0,30.32,SSW,196,0.0,3.0,91,0.00,,,0.00,Wunderground v.1.15,2013-10-26 13:55:00,
2013-10-26 09:56:00,33.4,31.1,30.32,SSW,196,0.0,3.0,91,0.00,,,0.00,Wunderground v.1.15,2013-10-26 13:56:00,
2013-10-26 09:57:00,33.5,31.2,30.32,SSW,196,1.0,3.0,91,0.00,,,0.00,Wunderground v.1.15,2013-10-26 13:57:00,
2013-10-26 09:58:00,33.7,31.4,30.32,SSW,195,1.0,3.0,91,0.00,,,0.00,Wunderground v.1.15,2013-10-26 13:58:00,
2013-10-26 10:00:00,33.9,31.6,30.32,SSW,196,0.0,1.0,91,0.00,,,0.00,Wunderground v.1.15,2013-10-26 14:00:00,
2013-10-26 10:02:00,34.1,31.7,30.32,SSW,196,2.0,3.0,91,0.00,,,0.00,Wunderground v.1.15,2013-10-26 14:02:00,
2013-10-26 10:03:00,34.4,32.0,30.32,SSW,196,0.0,3.0,91,0.00,,,0.00,Wunderground v.1.15,2013-10-26 14:03:00,
2013-10-26 10:04:00,34.4,32.0,30.32,SSW,196,2.0,3.0,91,0.00,,,0.00,Wunderground v.1.15,2013-10-26 14:04:00,
2013-10-26 10:05:00,34.4,32.0,30.32,SSW,196,1.0,4.0,91,0.00,,,0.00,Wunderground v.1.15,2013-10-26 14:05:00,
2013-10-26 10:07:00,34.9,32.3,30.32,SSW,196,2.0,4.0,90,0.00,,,0.00,Wunderground v.1.15,2013-10-26 14:07:00,
2013-10-26 10:08:00,35.2,32.6,30.32,SSW,195,2.0,4.0,90,0.00,,,0.00,Wunderground v.1.15,2013-10-26 14:08:00,
2013-10-26 10:09:00,35.2,32.6,30.32,SSW,196,0.0,4.0,90,0.00,,,0.00,Wunderground v.1.15,2013-10-26 14:09:00,
2013-10-26 10:10:00,35.5,32.9,30.32,SSW,196,3.0,3.0,90,0.00,,,0.00,Wunderground v.1.15,2013-10-26 14:10:00,
2013-10-26 10:12:00,35.7,32.8,30.32,SSW,196,0.0,3.0,89,0.00,,,0.00,Wunderground v.1.15,2013-10-26 14:12:00,
2013-10-26 10:14:00,36.1,33.2,30.31,SSW,195,2.0,3.0,89,0.00,,,0.00,Wunderground v.1.15,2013-10-26 14:14:00,
2013-10-26 10:15:00,36.3,33.4,30.31,SSW,196,2.0,3.0,89,0.00,,,0.00,Wunderground v.1.15,2013-10-26 14:15:00,
2013-10-26 10:16:00,36.4,33.5,30.31,SSW,196,0.0,3.0,89,0.00,,,0.00,Wunderground v.1.15,2013-10-26 14:16:00,
2013-10-26 10:17:00,36.7,33.5,30.32,SSW,198,0.0,3.0,88,0.00,,,0.00,Wunderground v.1.15,2013-10-26 14:17:00,
2013-10-26 10:19:00,36.9,33.4,30.31,SSW,198,2.0,5.0,87,0.00,,,0.00,Wunderground v.1.15,2013-10-26 14:19:00,
2013-10-26 10:20:00,37.0,33.5,30.32,SSW,198,1.0,1.0,87,0.00,,,0.00,Wunderground v.1.15,2013-10-26 14:20:00,
2013-10-26 10:21:00,37.2,33.7,30.32,SSW,198,2.0,2.0,87,0.00,,,0.00,Wunderground v.1.15,2013-10-26 14:21:00,
2013-10-26 10:22:00,37.4,33.9,30.31,SSW,198,2.0,3.0,87,0.00,,,0.00,Wunderground v.1.15,2013-10-26 14:22:00,
2013-10-26 10:25:00,37.6,33.8,30.32,SSW,198,2.0,4.0,86,0.00,,,0.00,Wunderground v.1.15,2013-10-26 14:25:00,
2013-10-26 10:26:00,37.8,34.0,30.32,SSW,198,2.0,4.0,86,0.00,,,0.00,Wunderground v.1.15,2013-10-26 14:26:00,
2013-10-26 10:27:00,37.9,34.1,30.31,SSW,198,1.0,4.0,86,0.00,,,0.00,Wunderground v.1.15,2013-10-26 14:27:00,
2013-10-26 10:28:00,38.0,34.2,30.32,SSW,198,0.0,4.0,86,0.00,,,0.00,Wunderground v.1.15,2013-10-26 14:28:00,
2013-10-26 10:30:00,38.4,34.6,30.32,SSW,198,2.0,3.0,86,0.00,,,0.00,Wunderground v.1.15,2013-10-26 14:30:00,
2013-10-26 10:31:00,38.4,34.6,30.32,SSW,198,1.0,3.0,86,0.00,,,0.00,Wunderground v.1.15,2013-10-26 14:31:00,
2013-10-26 10:33:00,38.8,34.7,30.32,SSW,198,1.0,3.0,85,0.00,,,0.00,Wunderground v.1.15,2013-10-26 14:33:00,
2013-10-26 10:36:00,39.3,35.5,30.32,SSW,199,0.0,3.0,86,0.00,,,0.00,Wunderground v.1.15,2013-10-26 14:36:00,
2013-10-26 10:37:00,39.4,35.6,30.32,SSW,199,0.0,3.0,86,0.00,,,0.00,Wunderground v.1.15,2013-10-26 14:37:00,
2013-10-26 10:39:00,39.7,35.6,30.32,SSW,199,2.0,3.0,85,0.00,,,0.00,Wunderground v.1.15,2013-10-26 14:39:00,
2013-10-26 10:41:00,40.1,35.7,30.32,SSW,199,3.0,4.0,84,0.00,,,0.00,Wunderground v.1.15,2013-10-26 14:41:00,
2013-10-26 10:42:00,40.2,35.8,30.32,SSW,199,2.0,4.0,84,0.00,,,0.00,Wunderground v.1.15,2013-10-26 14:42:00,
2013-10-26 10:44:00,40.4,35.6,30.32,SSW,199,1.0,4.0,83,0.00,,,0.00,Wunderground v.1.15,2013-10-26 14:44:00,
2013-10-26 10:45:00,40.4,35.6,30.32,SSW,201,3.0,4.0,83,0.00,,,0.00,Wunderground v.1.15,2013-10-26 14:45:00,
2013-10-26 10:46:00,40.5,35.7,30.32,SSW,200,2.0,4.0,83,0.00,,,0.00,Wunderground v.1.15,2013-10-26 14:46:00,
2013-10-26 10:47:00,40.6,36.1,30.32,SSW,201,2.0,4.0,84,0.00,,,0.00,Wunderground v.1.15,2013-10-26 14:47:00,
2013-10-26 10:49:00,40.8,35.4,30.31,SSW,201,1.0,5.0,81,0.00,,,0.00,Wunderground v.1.15,2013-10-26 14:49:00,
2013-10-26 10:50:00,41.0,35.9,30.31,SSW,200,3.0,3.0,82,0.00,,,0.00,Wunderground v.1.15,2013-10-26 14:50:00,
2013-10-26 10:51:00,41.0,35.6,30.32,SSW,201,3.0,3.0,81,0.00,,,0.00,Wunderground v.1.15,2013-10-26 14:51:00,
2013-10-26 10:52:00,41.1,35.7,30.32,SSW,201,3.0,4.0,81,0.00,,,0.00,Wunderground v.1.15,2013-10-26 14:52:00,
2013-10-26 10:53:00,41.1,35.7,30.31,SSW,201,3.0,4.0,81,0.00,,,0.00,Wunderground v.1.15,2013-10-26 14:53:00,
2013-10-26 10:54:00,41.3,36.2,30.31,SSW,200,1.0,4.0,82,0.00,,,0.00,Wunderground v.1.15,2013-10-26 14:54:00,
2013-10-26 10:56:00,41.5,36.4,30.31,SSW,201,2.0,4.0,82,0.00,,,0.00,Wunderground v.1.15,2013-10-26 14:56:00,
2013-10-26 10:57:00,41.7,36.3,30.31,SSW,203,3.0,4.0,81,0.00,,,0.00,Wunderground v.1.15,2013-10-26 14:57:00,
2013-10-26 10:58:00,41.7,35.7,30.31,SSW,206,5.0,5.0,79,0.00,,,0.00,Wunderground v.1.15,2013-10-26 14:58:00,
2013-10-26 11:01:00,41.8,35.4,30.30,SSW,207,3.0,4.0,78,0.00,,,0.00,Wunderground v.1.15,2013-10-26 15:01:00,
2013-10-26 11:02:00,42.0,36.0,30.31,SSW,207,2.0,4.0,79,0.00,,,0.00,Wunderground v.1.15,2013-10-26 15:02:00,
2013-10-26 11:03:00,42.1,35.7,30.31,SSW,207,5.0,5.0,78,0.00,,,0.00,Wunderground v.1.15,2013-10-26 15:03:00,
2013-10-26 11:06:00,42.3,35.6,30.30,SSW,207,1.0,5.0,77,0.00,,,0.00,Wunderground v.1.15,2013-10-26 15:06:00,
2013-10-26 11:08:00,42.6,36.2,30.30,SSW,207,2.0,5.0,78,0.00,,,0.00,Wunderground v.1.15,2013-10-26 15:08:00,
2013-10-26 11:09:00,42.7,36.3,30.30,SSW,207,1.0,5.0,78,0.00,,,0.00,Wunderground v.1.15,2013-10-26 15:09:00,
2013-10-26 11:11:00,43.0,36.3,30.30,SSW,206,0.0,3.0,77,0.00,,,0.00,Wunderground v.1.15,2013-10-26 15:11:00,
2013-10-26 11:12:00,43.2,36.5,30.30,SSW,209,2.0,5.0,77,0.00,,,0.00,Wunderground v.1.15,2013-10-26 15:12:00,
2013-10-26 11:13:00,43.4,36.3,30.30,WSW,258,1.0,5.0,76,0.00,,,0.00,Wunderground v.1.15,2013-10-26 15:13:00,
2013-10-26 11:14:00,43.5,36.4,30.30,SW,223,2.0,5.0,76,0.00,,,0.00,Wunderground v.1.15,2013-10-26 15:14:00,
2013-10-26 11:15:00,43.7,36.3,30.30,SW,217,2.0,5.0,75,0.00,,,0.00,Wunderground v.1.15,2013-10-26 15:15:00,
2013-10-26 11:16:00,44.0,36.2,30.30,SW,220,1.0,5.0,74,0.00,,,0.00,Wunderground v.1.15,2013-10-26 15:16:00,
2013-10-26 11:17:00,44.1,35.6,30.30,SW,218,3.0,5.0,72,0.00,,,0.00,Wunderground v.1.15,2013-10-26 15:17:00,
2013-10-26 11:19:00,44.4,35.9,30.30,SW,218,2.0,5.0,72,0.00,,,0.00,Wunderground v.1.15,2013-10-26 15:19:00,
2013-10-26 11:20:00,44.5,36.0,30.30,SW,218,1.0,2.0,72,0.00,,,0.00,Wunderground v.1.15,2013-10-26 15:20:00,
2013-10-26 11:21:00,44.7,36.2,30.30,SW,218,0.0,2.0,72,0.00,,,0.00,Wunderground v.1.15,2013-10-26 15:21:00,
2013-10-26 11:23:00,44.9,36.1,30.30,SW,219,2.0,5.0,71,0.00,,,0.00,Wunderground v.1.15,2013-10-26 15:23:00,
2013-10-26 11:24:00,45.0,36.2,30.29,SW,219,1.0,5.0,71,0.00,,,0.00,Wunderground v.1.15,2013-10-26 15:24:00,
2013-10-26 11:25:00,45.0,36.5,30.29,SW,218,2.0,5.0,72,0.00,,,0.00,Wunderground v.1.15,2013-10-26 15:25:00,
2013-10-26 11:26:00,45.2,36.4,30.29,SSW,213,2.0,5.0,71,0.00,,,0.00,Wunderground v.1.15,2013-10-26 15:26:00,
2013-10-26 11:28:00,45.3,36.1,30.29,SSW,211,4.0,5.0,70,0.00,,,0.00,Wunderground v.1.15,2013-10-26 15:28:00,
2013-10-26 11:29:00,45.4,36.5,30.29,SSW,209,3.0,3.0,71,0.00,,,0.00,Wunderground v.1.15,2013-10-26 15:29:00,
2013-10-26 11:30:00,45.5,36.6,30.29,SSW,207,3.0,4.0,71,0.00,,,0.00,Wunderground v.1.15,2013-10-26 15:30:00,
2013-10-26 11:31:00,45.6,36.0,30.29,SSW,207,1.0,4.0,69,0.00,,,0.00,Wunderground v.1.15,2013-10-26 15:31:00,
2013-10-26 11:32:00,45.6,36.0,30.29,SSW,207,0.0,4.0,69,0.00,,,0.00,Wunderground v.1.15,2013-10-26 15:32:00,
2013-10-26 11:33:00,45.7,36.8,30.29,SSW,207,4.0,4.0,71,0.00,,,0.00,Wunderground v.1.15,2013-10-26 15:33:00,
2013-10-26 11:34:00,45.8,36.6,30.29,SSW,202,2.0,4.0,70,0.00,,,0.00,Wunderground v.1.15,2013-10-26 15:34:00,
2013-10-26 11:35:00,45.8,36.2,30.29,SSW,202,3.0,4.0,69,0.00,,,0.00,Wunderground v.1.15,2013-10-26 15:35:00,
2013-10-26 11:37:00,46.0,36.8,30.28,SSW,205,1.0,5.0,70,0.00,,,0.00,Wunderground v.1.15,2013-10-26 15:37:00,
2013-10-26 11:38:00,46.1,36.1,30.29,SW,214,2.0,5.0,68,0.00,,,0.00,Wunderground v.1.15,2013-10-26 15:38:00,
2013-10-26 11:39:00,46.1,36.1,30.29,SW,214,4.0,5.0,68,0.00,,,0.00,Wunderground v.1.15,2013-10-26 15:39:00,
2013-10-26 11:40:00,46.1,36.1,30.29,SW,214,2.0,5.0,68,0.00,,,0.00,Wunderground v.1.15,2013-10-26 15:40:00,
2013-10-26 11:41:00,46.2,36.2,30.29,SW,218,4.0,5.0,68,0.00,,,0.00,Wunderground v.1.15,2013-10-26 15:41:00,
2013-10-26 11:42:00,46.3,36.3,30.28,SW,218,1.0,5.0,68,0.00,,,0.00,Wunderground v.1.15,2013-10-26 15:42:00,
2013-10-26 11:43:00,46.3,35.9,30.28,SW,218,0.0,5.0,67,0.00,,,0.00,Wunderground v.1.15,2013-10-26 15:43:00,
2013-10-26 11:44:00,46.4,36.4,30.28,SW,217,2.0,5.0,68,0.00,,,0.00,Wunderground v.1.15,2013-10-26 15:44:00,
2013-10-26 11:45:00,46.5,36.9,30.28,SW,217,3.0,5.0,69,0.00,,,0.00,Wunderground v.1.15,2013-10-26 15:45:00,
2013-10-26 11:47:00,46.8,36.4,30.27,SW,217,2.0,5.0,67,0.00,,,0.00,Wunderground v.1.15,2013-10-26 15:47:00,
2013-10-26 11:49:00,47.0,37.0,30.27,WNW,296,2.0,5.0,68,0.00,,,0.00,Wunderground v.1.15,2013-10-26 15:49:00,
2013-10-26 11:51:00,47.2,36.8,30.28,WSW,237,2.0,4.0,67,0.00,,,0.00,Wunderground v.1.15,2013-10-26 15:51:00,
2013-10-26 11:52:00,47.4,37.0,30.27,WSW,237,0.0,5.0,67,0.00,,,0.00,Wunderground v.1.15,2013-10-26 15:52:00,
2013-10-26 11:53:00,47.5,37.1,30.27,WSW,237,1.0,5.0,67,0.00,,,0.00,Wunderground v.1.15,2013-10-26 15:53:00,
2013-10-26 11:54:00,47.7,36.9,30.27,SW,224,2.0,5.0,66,0.00,,,0.00,Wunderground v.1.15,2013-10-26 15:54:00,
2013-10-26 11:56:00,47.9,36.3,30.27,SSW,199,4.0,6.0,64,0.00,,,0.00,Wunderground v.1.15,2013-10-26 15:56:00,
2013-10-26 11:57:00,48.0,36.4,30.27,SSW,204,4.0,6.0,64,0.00,,,0.00,Wunderground v.1.15,2013-10-26 15:57:00,
2013-10-26 11:58:00,48.1,36.5,30.27,SSW,203,3.0,6.0,64,0.00,,,0.00,Wunderground v.1.15,2013-10-26 15:58:00,
2013-10-26 11:59:00,48.2,36.6,30.27,SSW,203,1.0,3.0,64,0.00,,,0.00,Wunderground v.1.15,2013-10-26 15:59:00,
2013-10-26 12:00:00,48.2,36.6,30.27,SSW,204,1.0,3.0,64,0.00,,,0.00,Wunderground v.1.15,2013-10-26 16:00:00,
2013-10-26 12:01:00,48.4,36.8,30.26,SSW,205,3.0,5.0,64,0.00,,,0.00,Wunderground v.1.15,2013-10-26 16:01:00,
2013-10-26 12:03:00,48.5,36.5,30.26,SSW,208,2.0,6.0,63,0.00,,,0.00,Wunderground v.1.15,2013-10-26 16:03:00,
2013-10-26 12:04:00,48.7,37.1,30.26,SSW,207,2.0,6.0,64,0.00,,,0.00,Wunderground v.1.15,2013-10-26 16:04:00,
2013-10-26 12:05:00,48.8,37.2,30.26,SSW,207,2.0,6.0,64,0.00,,,0.00,Wunderground v.1.15,2013-10-26 16:05:00,
2013-10-26 12:07:00,49.1,37.4,30.26,SSW,208,1.0,6.0,64,0.00,,,0.00,Wunderground v.1.15,2013-10-26 16:07:00,
2013-10-26 12:08:00,49.2,37.1,30.26,SSW,207,1.0,6.0,63,0.00,,,0.00,Wunderground v.1.15,2013-10-26 16:08:00,
2013-10-26 12:09:00,49.3,37.2,30.26,SSW,208,1.0,6.0,63,0.00,,,0.00,Wunderground v.1.15,2013-10-26 16:09:00,
2013-10-26 12:10:00,49.5,37.4,30.27,SSW,208,1.0,2.0,63,0.00,,,0.00,Wunderground v.1.15,2013-10-26 16:10:00,
2013-10-26 12:11:00,49.7,36.8,30.26,SSW,208,2.0,5.0,61,0.00,,,0.00,Wunderground v.1.15,2013-10-26 16:11:00,
2013-10-26 12:12:00,49.9,37.0,30.26,SSW,201,4.0,7.0,61,0.00,,,0.00,Wunderground v.1.15,2013-10-26 16:12:00,
2013-10-26 12:13:00,49.9,36.6,30.26,SSW,208,2.0,7.0,60,0.00,,,0.00,Wunderground v.1.15,2013-10-26 16:13:00,
2013-10-26 12:14:00,49.9,36.6,30.26,SSW,208,2.0,7.0,60,0.00,,,0.00,Wunderground v.1.15,2013-10-26 16:14:00,
2013-10-26 12:15:00,50.0,36.7,30.26,SSW,204,4.0,7.0,60,0.00,,,0.00,Wunderground v.1.15,2013-10-26 16:15:00,
2013-10-26 12:16:00,50.0,36.7,30.26,SSW,194,1.0,7.0,60,0.00,,,0.00,Wunderground v.1.15,2013-10-26 16:16:00,
2013-10-26 12:17:00,50.1,36.7,30.25,SSW,194,1.0,7.0,60,0.00,,,0.00,Wunderground v.1.15,2013-10-26 16:17:00,
2013-10-26 12:19:00,50.3,37.4,30.25,WNW,294,5.0,7.0,61,0.00,,,0.00,Wunderground v.1.15,2013-10-26 16:19:00,
2013-10-26 12:20:00,50.4,37.0,30.25,WNW,293,2.0,5.0,60,0.00,,,0.00,Wunderground v.1.15,2013-10-26 16:20:00,
2013-10-26 12:21:00,50.5,37.1,30.25,West,270,3.0,5.0,60,0.00,,,0.00,Wunderground v.1.15,2013-10-26 16:21:00,
2013-10-26 12:22:00,50.6,36.8,30.25,SW,218,3.0,5.0,59,0.00,,,0.00,Wunderground v.1.15,2013-10-26 16:22:00,
2013-10-26 12:24:00,50.9,37.9,30.25,SW,229,2.0,5.0,61,0.00,,,0.00,Wunderground v.1.15,2013-10-26 16:24:00,
2013-10-26 12:25:00,51.0,37.2,30.25,SW,229,0.0,5.0,59,0.00,,,0.00,Wunderground v.1.15,2013-10-26 16:25:00,
2013-10-26 12:26:00,51.1,37.3,30.25,SW,228,3.0,5.0,59,0.00,,,0.00,Wunderground v.1.15,2013-10-26 16:26:00,
2013-10-26 12:27:00,51.4,37.5,30.25,SW,227,2.0,5.0,59,0.00,,,0.00,Wunderground v.1.15,2013-10-26 16:27:00,
2013-10-26 12:30:00,51.8,38.3,30.25,WNW,303,1.0,2.0,60,0.00,,,0.00,Wunderground v.1.15,2013-10-26 16:30:00,
2013-10-26 12:31:00,52.1,37.8,30.25,SSW,209,4.0,7.0,58,0.00,,,0.00,Wunderground v.1.15,2013-10-26 16:31:00,
2013-10-26 12:32:00,52.2,37.4,30.25,SW,223,2.0,7.0,57,0.00,,,0.00,Wunderground v.1.15,2013-10-26 16:32:00,
2013-10-26 12:35:00,52.6,38.2,30.25,SW,233,0.0,7.0,58,0.00,,,0.00,Wunderground v.1.15,2013-10-26 16:35:00,
2013-10-26 12:36:00,52.9,38.5,30.25,WSW,238,1.0,7.0,58,0.00,,,0.00,Wunderground v.1.15,2013-10-26 16:36:00,
2013-10-26 12:38:00,53.2,38.4,30.24,WSW,239,2.0,7.0,57,0.00,,,0.00,Wunderground v.1.15,2013-10-26 16:38:00,
2013-10-26 12:40:00,53.6,37.8,30.24,West,281,2.0,3.0,55,0.00,,,0.00,Wunderground v.1.15,2013-10-26 16:40:00,
2013-10-26 12:41:00,53.8,38.0,30.24,South,188,2.0,6.0,55,0.00,,,0.00,Wunderground v.1.15,2013-10-26 16:41:00,
2013-10-26 12:42:00,53.9,38.1,30.24,SSW,207,4.0,6.0,55,0.00,,,0.00,Wunderground v.1.15,2013-10-26 16:42:00,
2013-10-26 12:43:00,54.0,37.7,30.24,SSW,211,1.0,6.0,54,0.00,,,0.00,Wunderground v.1.15,2013-10-26 16:43:00,
2013-10-26 12:44:00,54.1,38.7,30.24,SSW,194,3.0,6.0,56,0.00,,,0.00,Wunderground v.1.15,2013-10-26 16:44:00,
2013-10-26 12:45:00,54.3,37.5,30.24,SSW,195,9.0,9.0,53,0.00,,,0.00,Wunderground v.1.15,2013-10-26 16:45:00,
2013-10-26 12:46:00,54.3,37.0,30.24,SSW,210,2.0,9.0,52,0.00,,,0.00,Wunderground v.1.15,2013-10-26 16:46:00,
2013-10-26 12:47:00,54.3,37.0,30.24,SSW,210,3.0,9.0,52,0.00,,,0.00,Wunderground v.1.15,2013-10-26 16:47:00,
2013-10-26 12:48:00,54.5,36.7,30.24,South,175,1.0,9.0,51,0.00,,,0.00,Wunderground v.1.15,2013-10-26 16:48:00,
2013-10-26 12:49:00,54.6,36.8,30.23,WSW,238,2.0,3.0,51,0.00,,,0.00,Wunderground v.1.15,2013-10-26 16:49:00,
2013-10-26 12:51:00,54.7,36.9,30.23,NNW,339,2.0,3.0,51,0.00,,,0.00,Wunderground v.1.15,2013-10-26 16:51:00,
2013-10-26 12:52:00,54.9,36.6,30.23,SSW,209,4.0,5.0,50,0.00,,,0.00,Wunderground v.1.15,2013-10-26 16:52:00,
2013-10-26 12:54:00,55.1,37.3,30.24,WSW,243,2.0,6.0,51,0.00,,,0.00,Wunderground v.1.15,2013-10-26 16:54:00,
2013-10-26 12:56:00,55.3,36.5,30.23,South,181,7.0,10.0,49,0.00,,,0.00,Wunderground v.1.15,2013-10-26 16:56:00,
2013-10-26 12:58:00,55.4,36.5,30.23,SW,221,2.0,10.0,49,0.00,,,0.00,Wunderground v.1.15,2013-10-26 16:58:00,
2013-10-26 12:59:00,55.7,36.3,30.23,WSW,240,2.0,8.0,48,0.00,,,0.00,Wunderground v.1.15,2013-10-26 16:59:00,
2013-10-26 13:00:00,55.7,36.3,30.23,WSW,239,3.0,8.0,48,0.00,,,0.00,Wunderground v.1.15,2013-10-26 17:00:00,
2013-10-26 13:01:00,55.8,34.8,30.23,SSW,206,6.0,8.0,45,0.00,,,0.00,Wunderground v.1.15,2013-10-26 17:01:00,
2013-10-26 13:02:00,55.8,34.8,30.23,SSW,205,8.0,8.0,45,0.00,,,0.00,Wunderground v.1.15,2013-10-26 17:02:00,
2013-10-26 13:03:00,55.8,34.8,30.23,SSW,192,6.0,8.0,45,0.00,,,0.00,Wunderground v.1.15,2013-10-26 17:03:00,
2013-10-26 13:04:00,55.7,34.1,30.23,South,190,4.0,12.0,44,0.00,,,0.00,Wunderground v.1.15,2013-10-26 17:04:00,
2013-10-26 13:05:00,55.6,34.6,30.22,SW,227,7.0,12.0,45,0.00,,,0.00,Wunderground v.1.15,2013-10-26 17:05:00,
2013-10-26 13:07:00,55.5,34.5,30.22,SSW,199,4.0,12.0,45,0.00,,,0.00,Wunderground v.1.15,2013-10-26 17:07:00,
2013-10-26 13:08:00,55.5,34.5,30.23,South,186,2.0,12.0,45,0.00,,,0.00,Wunderground v.1.15,2013-10-26 17:08:00,
2013-10-26 13:10:00,55.7,34.1,30.22,SSW,201,2.0,6.0,44,0.00,,,0.00,Wunderground v.1.15,2013-10-26 17:10:00,
2013-10-26 13:11:00,55.8,34.2,30.22,SSW,207,5.0,9.0,44,0.00,,,0.00,Wunderground v.1.15,2013-10-26 17:11:00,
2013-10-26 13:12:00,55.9,34.8,30.22,SSW,211,0.0,9.0,45,0.00,,,0.00,Wunderground v.1.15,2013-10-26 17:12:00,
2013-10-26 13:13:00,56.0,34.4,30.22,SSW,213,2.0,9.0,44,0.00,,,0.00,Wunderground v.1.15,2013-10-26 17:13:00,
2013-10-26 13:15:00,56.3,34.1,30.22,WSW,246,2.0,9.0,43,0.00,,,0.00,Wunderground v.1.15,2013-10-26 17:15:00,
2013-10-26 13:16:00,56.5,34.8,30.22,South,191,4.0,9.0,44,0.00,,,0.00,Wunderground v.1.15,2013-10-26 17:16:00,
2013-10-26 13:17:00,56.6,34.3,30.22,SW,225,2.0,9.0,43,0.00,,,0.00,Wunderground v.1.15,2013-10-26 17:17:00,
2013-10-26 13:19:00,56.5,34.3,30.22,SSW,203,5.0,11.0,43,0.00,,,0.00,Wunderground v.1.15,2013-10-26 17:19:00,
2013-10-26 13:20:00,56.3,33.5,30.22,SSW,205,1.0,10.0,42,0.00,,,0.00,Wunderground v.1.15,2013-10-26 17:20:00,
2013-10-26 13:22:00,56.3,35.2,30.22,SW,217,9.0,10.0,45,0.00,,,0.00,Wunderground v.1.15,2013-10-26 17:22:00,
2013-10-26 13:23:00,56.3,35.2,30.22,South,184,2.0,10.0,45,0.00,,,0.00,Wunderground v.1.15,2013-10-26 17:23:00,
2013-10-26 13:24:00,56.5,35.4,30.22,South,184,2.0,10.0,45,0.00,,,0.00,Wunderground v.1.15,2013-10-26 17:24:00,
2013-10-26 13:25:00,56.5,35.4,30.22,SSW,213,3.0,10.0,45,0.00,,,0.00,Wunderground v.1.15,2013-10-26 17:25:00,
2013-10-26 13:28:00,56.6,34.3,30.22,East,101,3.0,11.0,43,0.00,,,0.00,Wunderground v.1.15,2013-10-26 17:28:00,
2013-10-26 13:30:00,56.6,33.2,30.21,South,187,7.0,13.0,41,0.00,,,0.00,Wunderground v.1.15,2013-10-26 17:30:00,
2013-10-26 13:31:00,56.5,34.3,30.21,SSW,196,2.0,13.0,43,0.00,,,0.00,Wunderground v.1.15,2013-10-26 17:31:00,
2013-10-26 13:33:00,56.5,33.7,30.20,South,188,4.0,13.0,42,0.00,,,0.00,Wunderground v.1.15,2013-10-26 17:33:00,
2013-10-26 13:35:00,56.8,34.5,30.20,SSW,196,3.0,13.0,43,0.00,,,0.00,Wunderground v.1.15,2013-10-26 17:35:00,
2013-10-26 13:36:00,56.8,34.5,30.20,SSW,196,1.0,13.0,43,0.00,,,0.00,Wunderground v.1.15,2013-10-26 17:36:00,
2013-10-26 13:38:00,56.9,34.0,30.21,SSW,207,9.0,13.0,42,0.00,,,0.00,Wunderground v.1.15,2013-10-26 17:38:00,
2013-10-26 13:39:00,56.8,33.3,30.20,SSW,209,5.0,13.0,41,0.00,,,0.00,Wunderground v.1.15,2013-10-26 17:39:00,
2013-10-26 13:40:00,56.6,33.8,30.20,SSW,198,3.0,7.0,42,0.00,,,0.00,Wunderground v.1.15,2013-10-26 17:40:00,
2013-10-26 13:41:00,56.6,33.8,30.20,SSW,202,3.0,7.0,42,0.00,,,0.00,Wunderground v.1.15,2013-10-26 17:41:00,
2013-10-26 13:42:00,56.7,34.4,30.20,SSW,195,2.0,7.0,43,0.00,,,0.00,Wunderground v.1.15,2013-10-26 17:42:00,
2013-10-26 13:43:00,56.7,34.4,30.20,South,176,3.0,7.0,43,0.00,,,0.00,Wunderground v.1.15,2013-10-26 17:43:00,
2013-10-26 13:44:00,56.9,34.6,30.20,South,187,4.0,7.0,43,0.00,,,0.00,Wunderground v.1.15,2013-10-26 17:44:00,
2013-10-26 13:46:00,57.1,33.6,30.20,SSW,206,9.0,11.0,41,0.00,,,0.00,Wunderground v.1.15,2013-10-26 17:46:00,
2013-10-26 13:48:00,57.0,34.1,30.20,WSW,239,2.0,12.0,42,0.00,,,0.00,Wunderground v.1.15,2013-10-26 17:48:00,
2013-10-26 13:49:00,57.1,34.2,30.20,SSW,213,1.0,12.0,42,0.00,,,0.00,Wunderground v.1.15,2013-10-26 17:49:00,
2013-10-26 13:51:00,57.3,35.0,30.20,SW,219,6.0,10.0,43,0.00,,,0.00,Wunderground v.1.15,2013-10-26 17:51:00,
2013-10-26 13:52:00,57.2,33.1,30.20,SSW,203,11.0,14.0,40,0.00,,,0.00,Wunderground v.1.15,2013-10-26 17:52:00,
2013-10-26 13:53:00,57.0,33.5,30.20,South,187,7.0,14.0,41,0.00,,,0.00,Wunderground v.1.15,2013-10-26 17:53:00,
2013-10-26 13:54:00,56.8,32.7,30.20,SSW,194,3.0,14.0,40,0.00,,,0.00,Wunderground v.1.15,2013-10-26 17:54:00,
2013-10-26 13:56:00,56.9,34.0,30.20,SW,225,5.0,14.0,42,0.00,,,0.00,Wunderground v.1.15,2013-10-26 17:56:00,
2013-10-26 13:57:00,57.1,34.8,30.20,SW,223,3.0,14.0,43,0.00,,,0.00,Wunderground v.1.15,2013-10-26 17:57:00,
2013-10-26 13:58:00,57.2,34.3,30.20,SW,223,1.0,14.0,42,0.00,,,0.00,Wunderground v.1.15,2013-10-26 17:58:00,
2013-10-26 13:59:00,57.6,34.7,30.19,South,190,4.0,5.0,42,0.00,,,0.00,Wunderground v.1.15,2013-10-26 17:59:00,
2013-10-26 14:01:00,57.7,34.7,30.19,South,181,1.0,12.0,42,0.00,,,0.00,Wunderground v.1.15,2013-10-26 18:01:00,
2013-10-26 14:03:00,57.8,34.2,30.19,South,191,6.0,12.0,41,0.00,,,0.00,Wunderground v.1.15,2013-10-26 18:03:00,
2013-10-26 14:04:00,57.7,34.1,30.19,SSW,192,3.0,12.0,41,0.00,,,0.00,Wunderground v.1.15,2013-10-26 18:04:00,
2013-10-26 14:07:00,57.6,34.7,30.19,WSW,242,3.0,12.0,42,0.00,,,0.00,Wunderground v.1.15,2013-10-26 18:07:00,
2013-10-26 14:08:00,57.5,34.6,30.19,SSE,164,4.0,12.0,42,0.00,,,0.00,Wunderground v.1.15,2013-10-26 18:08:00,
2013-10-26 14:09:00,57.5,35.2,30.19,SSW,205,3.0,12.0,43,0.00,,,0.00,Wunderground v.1.15,2013-10-26 18:09:00,
2013-10-26 14:10:00,57.5,34.6,30.19,SSW,211,5.0,6.0,42,0.00,,,0.00,Wunderground v.1.15,2013-10-26 18:10:00,
2013-10-26 14:12:00,57.7,34.7,30.19,SSW,194,2.0,6.0,42,0.00,,,0.00,Wunderground v.1.15,2013-10-26 18:12:00,
2013-10-26 14:13:00,57.8,34.2,30.19,SSW,204,3.0,7.0,41,0.00,,,0.00,Wunderground v.1.15,2013-10-26 18:13:00,
2013-10-26 14:14:00,57.7,34.1,30.19,SSW,192,4.0,10.0,41,0.00,,,0.00,Wunderground v.1.15,2013-10-26 18:14:00,
2013-10-26 14:15:00,57.7,34.7,30.19,SSW,192,3.0,10.0,42,0.00,,,0.00,Wunderground v.1.15,2013-10-26 18:15:00,
2013-10-26 14:16:00,57.8,34.2,30.19,SSW,199,1.0,10.0,41,0.00,,,0.00,Wunderground v.1.15,2013-10-26 18:16:00,
2013-10-26 14:17:00,57.8,34.2,30.18,WSW,255,5.0,10.0,41,0.00,,,0.00,Wunderground v.1.15,2013-10-26 18:17:00,
2013-10-26 14:19:00,57.8,34.2,30.18,SSW,202,5.0,8.0,41,0.00,,,0.00,Wunderground v.1.15,2013-10-26 18:19:00,
2013-10-26 14:20:00,57.9,34.3,30.18,SSW,202,6.0,10.0,41,0.00,,,0.00,Wunderground v.1.15,2013-10-26 18:20:00,
2013-10-26 14:21:00,57.9,34.3,30.19,SSW,199,3.0,10.0,41,0.00,,,0.00,Wunderground v.1.15,2013-10-26 18:21:00,
2013-10-26 14:22:00,57.9,34.3,30.19,SE,137,6.0,10.0,41,0.00,,,0.00,Wunderground v.1.15,2013-10-26 18:22:00,
2013-10-26 14:23:00,58.0,34.4,30.18,South,176,1.0,10.0,41,0.00,,,0.00,Wunderground v.1.15,2013-10-26 18:23:00,
2013-10-26 14:24:00,58.1,35.1,30.18,SW,236,6.0,10.0,42,0.00,,,0.00,Wunderground v.1.15,2013-10-26 18:24:00,
2013-10-26 14:25:00,58.2,33.3,30.18,SW,217,3.0,12.0,39,0.00,,,0.00,Wunderground v.1.15,2013-10-26 18:25:00,
2013-10-26 14:26:00,58.3,34.7,30.18,SW,219,10.0,12.0,41,0.00,,,0.00,Wunderground v.1.15,2013-10-26 18:26:00,
2013-10-26 14:27:00,58.3,34.7,30.18,SSW,207,7.0,12.0,41,0.00,,,0.00,Wunderground v.1.15,2013-10-26 18:27:00,
2013-10-26 14:28:00,58.2,33.3,30.18,SW,224,5.0,12.0,39,0.00,,,0.00,Wunderground v.1.15,2013-10-26 18:28:00,
2013-10-26 14:31:00,58.1,33.2,30.17,SSW,207,2.0,12.0,39,0.00,,,0.00,Wunderground v.1.15,2013-10-26 18:31:00,
2013-10-26 14:32:00,58.1,33.2,30.17,SSW,209,1.0,12.0,39,0.00,,,0.00,Wunderground v.1.15,2013-10-26 18:32:00,
2013-10-26 14:33:00,58.2,34.6,30.17,SSW,192,6.0,12.0,41,0.00,,,0.00,Wunderground v.1.15,2013-10-26 18:33:00,
2013-10-26 14:36:00,58.3,32.8,30.17,SSW,200,4.0,12.0,38,0.00,,,0.00,Wunderground v.1.15,2013-10-26 18:36:00,
2013-10-26 14:37:00,58.4,33.5,30.17,SW,223,5.0,12.0,39,0.00,,,0.00,Wunderground v.1.15,2013-10-26 18:37:00,
2013-10-26 14:38:00,58.6,34.3,30.17,SW,225,6.0,12.0,40,0.00,,,0.00,Wunderground v.1.15,2013-10-26 18:38:00,
2013-10-26 14:41:00,59.0,33.4,30.17,SSW,208,4.0,12.0,38,0.00,,,0.00,Wunderground v.1.15,2013-10-26 18:41:00,
2013-10-26 14:42:00,59.0,33.4,30.17,South,187,7.0,12.0,38,0.00,,,0.00,Wunderground v.1.15,2013-10-26 18:42:00,
2013-10-26 14:43:00,58.9,33.3,30.17,SSW,209,3.0,12.0,38,0.00,,,0.00,Wunderground v.1.15,2013-10-26 18:43:00,
2013-10-26 14:46:00,58.8,33.9,30.17,SSW,196,2.0,12.0,39,0.00,,,0.00,Wunderground v.1.15,2013-10-26 18:46:00,
2013-10-26 14:47:00,59.0,35.3,30.17,SSW,202,1.0,12.0,41,0.00,,,0.00,Wunderground v.1.15,2013-10-26 18:47:00,
2013-10-26 14:48:00,59.0,35.3,30.18,SSW,203,1.0,12.0,41,0.00,,,0.00,Wunderground v.1.15,2013-10-26 18:48:00,
2013-10-26 14:49:00,59.0,35.3,30.18,South,187,3.0,12.0,41,0.00,,,0.00,Wunderground v.1.15,2013-10-26 18:49:00,
2013-10-26 14:51:00,59.0,34.7,30.17,South,190,0.0,4.0,40,0.00,,,0.00,Wunderground v.1.15,2013-10-26 18:51:00,
2013-10-26 14:52:00,59.0,33.4,30.17,South,171,3.0,4.0,38,0.00,,,0.00,Wunderground v.1.15,2013-10-26 18:52:00,
2013-10-26 14:53:00,59.0,33.4,30.17,South,171,2.0,4.0,38,0.00,,,0.00,Wunderground v.1.15,2013-10-26 18:53:00,
2013-10-26 14:54:00,59.0,33.4,30.17,SSW,207,4.0,7.0,38,0.00,,,0.00,Wunderground v.1.15,2013-10-26 18:54:00,
2013-10-26 14:56:00,59.0,34.1,30.17,SSW,192,3.0,9.0,39,0.00,,,0.00,Wunderground v.1.15,2013-10-26 18:56:00,
2013-10-26 14:58:00,59.0,32.7,30.17,SW,225,2.0,9.0,37,0.00,,,0.00,Wunderground v.1.15,2013-10-26 18:58:00,
2013-10-26 14:59:00,59.0,33.4,30.17,SW,216,5.0,9.0,38,0.00,,,0.00,Wunderground v.1.15,2013-10-26 18:59:00,
2013-10-26 15:00:00,59.0,34.1,30.17,South,172,4.0,5.0,39,0.00,,,0.00,Wunderground v.1.15,2013-10-26 19:00:00,
2013-10-26 15:01:00,59.0,34.1,30.17,South,187,1.0,10.0,39,0.00,,,0.00,Wunderground v.1.15,2013-10-26 19:01:00,
2013-10-26 15:04:00,59.0,33.4,30.17,SSW,208,7.0,11.0,38,0.00,,,0.00,Wunderground v.1.15,2013-10-26 19:04:00,
2013-10-26 15:05:00,59.0,33.4,30.17,West,265,2.0,11.0,38,0.00,,,0.00,Wunderground v.1.15,2013-10-26 19:05:00,
2013-10-26 15:06:00,59.0,33.4,30.17,West,265,2.0,11.0,38,0.00,,,0.00,Wunderground v.1.15,2013-10-26 19:06:00,
2013-10-26 15:09:00,59.1,34.8,30.16,SW,218,2.0,3.0,40,0.00,,,0.00,Wunderground v.1.15,2013-10-26 19:09:00,
2013-10-26 15:10:00,59.1,33.5,30.17,South,186,3.0,9.0,38,0.00,,,0.00,Wunderground v.1.15,2013-10-26 19:10:00,
2013-10-26 15:11:00,59.1,33.5,30.17,South,186,3.0,9.0,38,0.00,,,0.00,Wunderground v.1.15,2013-10-26 19:11:00,
2013-10-26 15:14:00,58.6,32.4,30.17,SSW,205,5.0,10.0,37,0.00,,,0.00,Wunderground v.1.15,2013-10-26 19:14:00,
2013-10-26 15:15:00,58.4,32.2,30.17,SSW,205,0.0,10.0,37,0.00,,,0.00,Wunderground v.1.15,2013-10-26 19:15:00,
2013-10-26 15:16:00,58.2,33.3,30.17,SSW,206,1.0,10.0,39,0.00,,,0.00,Wunderground v.1.15,2013-10-26 19:16:00,
2013-10-26 15:17:00,58.1,33.2,30.17,SSW,205,3.0,10.0,39,0.00,,,0.00,Wunderground v.1.15,2013-10-26 19:17:00,
2013-10-26 15:20:00,57.7,33.5,30.17,SSW,207,3.0,4.0,40,0.00,,,0.00,Wunderground v.1.15,2013-10-26 19:20:00,
2013-10-26 15:21:00,57.7,32.9,30.17,SSW,211,2.0,6.0,39,0.00,,,0.00,Wunderground v.1.15,2013-10-26 19:21:00,
2013-10-26 15:22:00,57.6,32.8,30.17,SSW,207,3.0,6.0,39,0.00,,,0.00,Wunderground v.1.15,2013-10-26 19:22:00,
2013-10-26 15:25:00,57.8,34.2,30.17,SSW,207,3.0,6.0,41,0.00,,,0.00,Wunderground v.1.15,2013-10-26 19:25:00,
2013-10-26 15:26:00,57.8,34.2,30.17,SSW,207,2.0,6.0,41,0.00,,,0.00,Wunderground v.1.15,2013-10-26 19:26:00,
2013-10-26 15:27:00,58.0,33.8,30.16,SSW,207,2.0,6.0,40,0.00,,,0.00,Wunderground v.1.15,2013-10-26 19:27:00,
2013-10-26 15:30:00,58.4,34.2,30.16,SW,215,0.0,3.0,40,0.00,,,0.00,Wunderground v.1.15,2013-10-26 19:30:00,
2013-10-26 15:31:00,58.5,34.2,30.16,SW,215,0.0,3.0,40,0.00,,,0.00,Wunderground v.1.15,2013-10-26 19:31:00,
2013-10-26 15:32:00,58.7,34.4,30.16,NNW,345,5.0,5.0,40,0.00,,,0.00,Wunderground v.1.15,2013-10-26 19:32:00,
2013-10-26 15:36:00,59.0,33.4,30.16,SSW,205,3.0,6.0,38,0.00,,,0.00,Wunderground v.1.15,2013-10-26 19:36:00,
2013-10-26 15:37:00,59.5,34.5,30.16,SSW,202,1.0,6.0,39,0.00,,,0.00,Wunderground v.1.15,2013-10-26 19:37:00,
2013-10-26 15:41:00,59.6,33.3,30.16,SSW,200,5.0,10.0,37,0.00,,,0.00,Wunderground v.1.15,2013-10-26 19:41:00,
2013-10-26 15:42:00,59.5,33.2,30.15,SSW,196,3.0,11.0,37,0.00,,,0.00,Wunderground v.1.15,2013-10-26 19:42:00,
2013-10-26 15:43:00,59.5,33.9,30.16,SSW,207,5.0,11.0,38,0.00,,,0.00,Wunderground v.1.15,2013-10-26 19:43:00,
2013-10-26 15:46:00,59.6,33.9,30.16,WSW,243,3.0,11.0,38,0.00,,,0.00,Wunderground v.1.15,2013-10-26 19:46:00,
2013-10-26 15:47:00,59.7,33.4,30.16,SSW,203,5.0,11.0,37,0.00,,,0.00,Wunderground v.1.15,2013-10-26 19:47:00,
2013-10-26 15:48:00,59.7,33.4,30.16,SW,218,7.0,11.0,37,0.00,,,0.00,Wunderground v.1.15,2013-10-26 19:48:00,
2013-10-26 15:49:00,59.5,31.8,30.15,SSW,200,1.0,11.0,35,0.00,,,0.00,Wunderground v.1.15,2013-10-26 19:49:00,
2013-10-26 15:51:00,59.5,33.2,30.15,South,191,4.0,6.0,37,0.00,,,0.00,Wunderground v.1.15,2013-10-26 19:51:00,
2013-10-26 15:52:00,59.5,32.5,30.15,South,187,8.0,8.0,36,0.00,,,0.00,Wunderground v.1.15,2013-10-26 19:52:00,
2013-10-26 15:53:00,59.6,32.6,30.16,SSW,211,9.0,10.0,36,0.00,,,0.00,Wunderground v.1.15,2013-10-26 19:53:00,
2013-10-26 15:54:00,59.5,31.8,30.15,SW,217,5.0,11.0,35,0.00,,,0.00,Wunderground v.1.15,2013-10-26 19:54:00,
2013-10-26 15:56:00,59.4,33.8,30.15,SW,230,0.0,11.0,38,0.00,,,0.00,Wunderground v.1.15,2013-10-26 19:56:00,
2013-10-26 15:57:00,59.4,33.8,30.15,SW,230,1.0,11.0,38,0.00,,,0.00,Wunderground v.1.15,2013-10-26 19:57:00,
2013-10-26 15:59:00,59.6,33.3,30.15,SW,214,7.0,11.0,37,0.00,,,0.00,Wunderground v.1.15,2013-10-26 19:59:00,
2013-10-26 16:00:00,59.7,32.7,30.16,SW,215,3.0,5.0,36,0.00,,,0.00,Wunderground v.1.15,2013-10-26 20:00:00,
2013-10-26 16:02:00,60.0,32.9,30.16,SSW,209,3.0,6.0,36,0.00,,,0.00,Wunderground v.1.15,2013-10-26 20:02:00,
2013-10-26 16:03:00,60.1,33.0,30.16,SSW,209,4.0,6.0,36,0.00,,,0.00,Wunderground v.1.15,2013-10-26 20:03:00,
2013-10-26 16:04:00,60.2,33.1,30.16,SSW,209,0.0,6.0,36,0.00,,,0.00,Wunderground v.1.15,2013-10-26 20:04:00,
2013-10-26 16:05:00,60.2,33.8,30.16,SSW,209,2.0,6.0,37,0.00,,,0.00,Wunderground v.1.15,2013-10-26 20:05:00,
2013-10-26 16:07:00,60.5,33.4,30.16,SSW,202,4.0,13.0,36,0.00,,,0.00,Wunderground v.1.15,2013-10-26 20:07:00,
2013-10-26 16:08:00,60.5,32.7,30.16,SSW,202,2.0,13.0,35,0.00,,,0.00,Wunderground v.1.15,2013-10-26 20:08:00,
2013-10-26 16:09:00,60.5,33.4,30.15,South,182,12.0,14.0,36,0.00,,,0.00,Wunderground v.1.15,2013-10-26 20:09:00,
2013-10-26 16:11:00,60.3,31.8,30.15,SSW,196,4.0,10.0,34,0.00,,,0.00,Wunderground v.1.15,2013-10-26 20:11:00,
2013-10-26 16:13:00,60.2,32.4,30.15,SSW,196,6.0,10.0,35,0.00,,,0.00,Wunderground v.1.15,2013-10-26 20:13:00,
2013-10-26 16:14:00,60.0,32.2,30.15,SSW,198,1.0,10.0,35,0.00,,,0.00,Wunderground v.1.15,2013-10-26 20:14:00,
2013-10-26 16:15:00,60.0,32.9,30.15,SSW,195,3.0,10.0,36,0.00,,,0.00,Wunderground v.1.15,2013-10-26 20:15:00,
2013-10-26 16:16:00,60.0,32.2,30.15,SSW,203,6.0,10.0,35,0.00,,,0.00,Wunderground v.1.15,2013-10-26 20:16:00,
2013-10-26 16:18:00,59.8,31.3,30.15,SSE,153,4.0,10.0,34,0.00,,,0.00,Wunderground v.1.15,2013-10-26 20:18:00,
2013-10-26 16:19:00,59.6,31.9,30.15,SW,223,2.0,10.0,35,0.00,,,0.00,Wunderground v.1.15,2013-10-26 20:19:00,
2013-10-26 16:20:00,59.6,32.6,30.15,South,169,3.0,4.0,36,0.00,,,0.00,Wunderground v.1.15,2013-10-26 20:20:00,
2013-10-26 16:22:00,59.5,31.8,30.15,SW,219,0.0,9.0,35,0.00,,,0.00,Wunderground v.1.15,2013-10-26 20:22:00,
2013-10-26 16:23:00,59.5,33.2,30.14,WSW,237,1.0,9.0,37,0.00,,,0.00,Wunderground v.1.15,2013-10-26 20:23:00,
2013-10-26 16:24:00,59.6,33.3,30.14,SW,236,1.0,9.0,37,0.00,,,0.00,Wunderground v.1.15,2013-10-26 20:24:00,
2013-10-26 16:25:00,59.6,32.6,30.15,SW,236,3.0,9.0,36,0.00,,,0.00,Wunderground v.1.15,2013-10-26 20:25:00,
2013-10-26 16:26:00,59.7,33.4,30.14,SSW,209,5.0,9.0,37,0.00,,,0.00,Wunderground v.1.15,2013-10-26 20:26:00,
2013-10-26 16:28:00,59.7,32.0,30.14,SSW,196,2.0,10.0,35,0.00,,,0.00,Wunderground v.1.15,2013-10-26 20:28:00,
2013-10-26 16:29:00,59.7,33.4,30.14,NE,56,3.0,10.0,37,0.00,,,0.00,Wunderground v.1.15,2013-10-26 20:29:00,
2013-10-26 16:30:00,59.7,33.4,30.14,SW,236,5.0,9.0,37,0.00,,,0.00,Wunderground v.1.15,2013-10-26 20:30:00,
2013-10-26 16:31:00,59.7,32.0,30.14,SSW,200,4.0,10.0,35,0.00,,,0.00,Wunderground v.1.15,2013-10-26 20:31:00,
2013-10-26 16:34:00,59.6,33.3,30.14,SSW,204,5.0,10.0,37,0.00,,,0.00,Wunderground v.1.15,2013-10-26 20:34:00,
2013-10-26 16:35:00,59.6,33.3,30.14,SSW,202,4.0,10.0,37,0.00,,,0.00,Wunderground v.1.15,2013-10-26 20:35:00,
2013-10-26 16:37:00,59.6,32.6,30.14,SW,216,5.0,10.0,36,0.00,,,0.00,Wunderground v.1.15,2013-10-26 20:37:00,
2013-10-26 16:39:00,59.4,33.1,30.14,SSW,197,3.0,3.0,37,0.00,,,0.00,Wunderground v.1.15,2013-10-26 20:39:00,
2013-10-26 16:40:00,59.4,33.1,30.14,South,188,6.0,6.0,37,0.00,,,0.00,Wunderground v.1.15,2013-10-26 20:40:00,
2013-10-26 16:42:00,59.1,31.4,30.13,SSW,209,11.0,11.0,35,0.00,,,0.00,Wunderground v.1.15,2013-10-26 20:42:00,
2013-10-26 16:45:00,59.0,31.4,30.13,SSW,200,5.0,12.0,35,0.00,,,0.00,Wunderground v.1.15,2013-10-26 20:45:00,
2013-10-26 16:46:00,59.0,31.4,30.13,SW,221,9.0,12.0,35,0.00,,,0.00,Wunderground v.1.15,2013-10-26 20:46:00,
2013-10-26 16:47:00,58.9,32.0,30.12,SSW,195,6.0,12.0,36,0.00,,,0.00,Wunderground v.1.15,2013-10-26 20:47:00,
2013-10-26 16:50:00,58.6,32.4,30.13,SW,214,4.0,7.0,37,0.00,,,0.00,Wunderground v.1.15,2013-10-26 20:50:00,
2013-10-26 16:51:00,58.6,32.4,30.13,SW,214,0.0,7.0,37,0.00,,,0.00,Wunderground v.1.15,2013-10-26 20:51:00,
2013-10-26 16:55:00,58.6,31.7,30.13,South,190,2.0,11.0,36,0.00,,,0.00,Wunderground v.1.15,2013-10-26 20:55:00,
2013-10-26 16:56:00,58.5,33.0,30.13,South,190,1.0,11.0,38,0.00,,,0.00,Wunderground v.1.15,2013-10-26 20:56:00,
2013-10-26 17:00:00,58.3,32.8,30.13,SSW,204,8.0,8.0,38,0.00,,,0.00,Wunderground v.1.15,2013-10-26 21:00:00,
2013-10-26 17:01:00,58.3,32.8,30.13,SSW,194,2.0,9.0,38,0.00,,,0.00,Wunderground v.1.15,2013-10-26 21:01:00,
2013-10-26 17:06:00,58.0,33.8,30.13,SSW,213,0.0,9.0,40,0.00,,,0.00,Wunderground v.1.15,2013-10-26 21:06:00,
2013-10-26 17:07:00,57.9,33.7,30.13,SSW,213,1.0,9.0,40,0.00,,,0.00,Wunderground v.1.15,2013-10-26 21:07:00,
2013-10-26 17:11:00,57.9,34.3,30.13,SSW,208,0.0,2.0,41,0.00,,,0.00,Wunderground v.1.15,2013-10-26 21:11:00,
2013-10-26 17:12:00,58.0,34.4,30.13,SSW,208,0.0,2.0,41,0.00,,,0.00,Wunderground v.1.15,2013-10-26 21:12:00,
2013-10-26 17:17:00,58.2,34.0,30.13,NW,306,4.0,5.0,40,0.00,,,0.00,Wunderground v.1.15,2013-10-26 21:17:00,
2013-10-26 17:22:00,58.0,33.2,30.13,SSW,210,6.0,10.0,39,0.00,,,0.00,Wunderground v.1.15,2013-10-26 21:22:00,
2013-10-26 17:23:00,57.8,33.6,30.13,SSW,213,3.0,10.0,40,0.00,,,0.00,Wunderground v.1.15,2013-10-26 21:23:00,
2013-10-26 17:27:00,57.6,34.7,30.12,SSW,209,1.0,10.0,42,0.00,,,0.00,Wunderground v.1.15,2013-10-26 21:27:00,
2013-10-26 17:28:00,57.5,33.3,30.13,SSW,207,4.0,10.0,40,0.00,,,0.00,Wunderground v.1.15,2013-10-26 21:28:00,
2013-10-26 17:29:00,57.5,34.0,30.13,SSW,207,1.0,10.0,41,0.00,,,0.00,Wunderground v.1.15,2013-10-26 21:29:00,
2013-10-26 17:32:00,57.3,33.8,30.13,South,182,3.0,6.0,41,0.00,,,0.00,Wunderground v.1.15,2013-10-26 21:32:00,
2013-10-26 17:33:00,57.3,33.8,30.13,South,182,1.0,6.0,41,0.00,,,0.00,Wunderground v.1.15,2013-10-26 21:33:00,
2013-10-26 17:35:00,57.1,34.2,30.13,South,182,2.0,6.0,42,0.00,,,0.00,Wunderground v.1.15,2013-10-26 21:35:00,
2013-10-26 17:37:00,56.9,32.8,30.12,SSW,202,2.0,7.0,40,0.00,,,0.00,Wunderground v.1.15,2013-10-26 21:37:00,
2013-10-26 17:38:00,56.9,32.8,30.12,SSW,202,0.0,7.0,40,0.00,,,0.00,Wunderground v.1.15,2013-10-26 21:38:00,
2013-10-26 17:41:00,56.8,34.5,30.13,South,187,3.0,6.0,43,0.00,,,0.00,Wunderground v.1.15,2013-10-26 21:41:00,
2013-10-26 17:42:00,56.7,34.4,30.13,South,187,3.0,6.0,43,0.00,,,0.00,Wunderground v.1.15,2013-10-26 21:42:00,
2013-10-26 17:43:00,56.7,34.4,30.13,South,187,0.0,6.0,43,0.00,,,0.00,Wunderground v.1.15,2013-10-26 21:43:00,
2013-10-26 17:44:00,56.7,34.4,30.13,South,187,0.0,6.0,43,0.00,,,0.00,Wunderground v.1.15,2013-10-26 21:44:00,
2013-10-26 17:46:00,56.6,34.9,30.13,South,186,3.0,6.0,44,0.00,,,0.00,Wunderground v.1.15,2013-10-26 21:46:00,
2013-10-26 17:47:00,56.6,34.3,30.13,South,186,0.0,6.0,43,0.00,,,0.00,Wunderground v.1.15,2013-10-26 21:47:00,
2013-10-26 17:49:00,56.6,34.3,30.13,South,186,1.0,6.0,43,0.00,,,0.00,Wunderground v.1.15,2013-10-26 21:49:00,
2013-10-26 17:53:00,56.4,34.2,30.13,SSW,203,2.0,6.0,43,0.00,,,0.00,Wunderground v.1.15,2013-10-26 21:53:00,
2013-10-26 17:54:00,56.4,35.3,30.13,SSW,204,1.0,6.0,45,0.00,,,0.00,Wunderground v.1.15,2013-10-26 21:54:00,
2013-10-26 17:56:00,56.3,34.6,30.13,SSW,204,1.0,6.0,44,0.00,,,0.00,Wunderground v.1.15,2013-10-26 21:56:00,
2013-10-26 17:58:00,56.2,35.1,30.13,SSW,200,1.0,6.0,45,0.00,,,0.00,Wunderground v.1.15,2013-10-26 21:58:00,
2013-10-26 17:59:00,56.2,34.6,30.13,SSW,210,2.0,2.0,44,0.00,,,0.00,Wunderground v.1.15,2013-10-26 21:59:00,
2013-10-26 18:00:00,56.2,34.6,30.12,SSW,210,2.0,3.0,44,0.00,,,0.00,Wunderground v.1.15,2013-10-26 22:00:00,
2013-10-26 18:01:00,56.1,35.6,30.12,SSW,210,1.0,3.0,46,0.00,,,0.00,Wunderground v.1.15,2013-10-26 22:01:00,
2013-10-26 18:03:00,56.0,33.8,30.13,SSW,209,2.0,5.0,43,0.00,,,0.00,Wunderground v.1.15,2013-10-26 22:03:00,
2013-10-26 18:04:00,56.0,34.9,30.13,SSW,196,0.0,5.0,45,0.00,,,0.00,Wunderground v.1.15,2013-10-26 22:04:00,
2013-10-26 18:05:00,56.0,34.9,30.13,SSW,196,2.0,5.0,45,0.00,,,0.00,Wunderground v.1.15,2013-10-26 22:05:00,
2013-10-26 18:06:00,56.0,33.8,30.13,South,184,2.0,6.0,43,0.00,,,0.00,Wunderground v.1.15,2013-10-26 22:06:00,
2013-10-26 18:08:00,55.9,34.8,30.13,South,184,3.0,6.0,45,0.00,,,0.00,Wunderground v.1.15,2013-10-26 22:08:00,
2013-10-26 18:09:00,55.9,35.4,30.13,South,188,4.0,6.0,46,0.00,,,0.00,Wunderground v.1.15,2013-10-26 22:09:00,
2013-10-26 18:10:00,55.9,34.3,30.13,SSW,192,2.0,4.0,44,0.00,,,0.00,Wunderground v.1.15,2013-10-26 22:10:00,
2013-10-26 18:11:00,55.9,34.8,30.13,SSW,192,1.0,4.0,45,0.00,,,0.00,Wunderground v.1.15,2013-10-26 22:11:00,
2013-10-26 18:13:00,55.8,34.2,30.13,SSW,200,2.0,6.0,44,0.00,,,0.00,Wunderground v.1.15,2013-10-26 22:13:00,
2013-10-26 18:14:00,55.8,34.8,30.13,SSW,200,1.0,6.0,45,0.00,,,0.00,Wunderground v.1.15,2013-10-26 22:14:00,
2013-10-26 18:15:00,55.8,35.3,30.13,SSW,200,0.0,6.0,46,0.00,,,0.00,Wunderground v.1.15,2013-10-26 22:15:00,
2013-10-26 18:16:00,55.8,34.8,30.13,SSW,200,2.0,6.0,45,0.00,,,0.00,Wunderground v.1.15,2013-10-26 22:16:00,
2013-10-26 18:18:00,55.7,35.2,30.13,SSW,200,0.0,6.0,46,0.00,,,0.00,Wunderground v.1.15,2013-10-26 22:18:00,
2013-10-26 18:20:00,55.7,35.8,30.13,SSW,199,1.0,2.0,47,0.00,,,0.00,Wunderground v.1.15,2013-10-26 22:20:00,
2013-10-26 18:21:00,55.7,35.8,30.13,SSW,199,1.0,2.0,47,0.00,,,0.00,Wunderground v.1.15,2013-10-26 22:21:00,
2013-10-26 18:24:00,55.5,34.5,30.13,SSW,200,1.0,5.0,45,0.00,,,0.00,Wunderground v.1.15,2013-10-26 22:24:00,
2013-10-26 18:25:00,55.6,35.7,30.14,SSW,200,2.0,5.0,47,0.00,,,0.00,Wunderground v.1.15,2013-10-26 22:25:00,
2013-10-26 18:26:00,55.5,35.6,30.14,SSW,200,3.0,5.0,47,0.00,,,0.00,Wunderground v.1.15,2013-10-26 22:26:00,
2013-10-26 18:27:00,55.5,35.0,30.13,SW,234,3.0,9.0,46,0.00,,,0.00,Wunderground v.1.15,2013-10-26 22:27:00,
2013-10-26 18:29:00,55.4,34.4,30.13,SSW,199,2.0,4.0,45,0.00,,,0.00,Wunderground v.1.15,2013-10-26 22:29:00,
2013-10-26 18:30:00,55.4,34.9,30.13,SSW,199,0.0,4.0,46,0.00,,,0.00,Wunderground v.1.15,2013-10-26 22:30:00,
2013-10-26 18:31:00,55.3,34.9,30.13,SSW,199,1.0,4.0,46,0.00,,,0.00,Wunderground v.1.15,2013-10-26 22:31:00,
2013-10-26 18:32:00,55.3,34.9,30.13,SSW,196,4.0,8.0,46,0.00,,,0.00,Wunderground v.1.15,2013-10-26 22:32:00,
2013-10-26 18:35:00,55.2,34.8,30.13,SSW,196,3.0,8.0,46,0.00,,,0.00,Wunderground v.1.15,2013-10-26 22:35:00,
2013-10-26 18:36:00,55.2,34.8,30.13,SSW,196,0.0,8.0,46,0.00,,,0.00,Wunderground v.1.15,2013-10-26 22:36:00,
2013-10-26 18:37:00,55.1,35.2,30.13,SSW,196,5.0,8.0,47,0.00,,,0.00,Wunderground v.1.15,2013-10-26 22:37:00,
2013-10-26 18:40:00,54.9,35.0,30.13,SSW,196,4.0,4.0,47,0.00,,,0.00,Wunderground v.1.15,2013-10-26 22:40:00,
2013-10-26 18:41:00,54.9,34.5,30.12,SSW,196,2.0,4.0,46,0.00,,,0.00,Wunderground v.1.15,2013-10-26 22:41:00,
2013-10-26 18:42:00,54.9,35.0,30.12,SSW,196,1.0,4.0,47,0.00,,,0.00,Wunderground v.1.15,2013-10-26 22:42:00,
2013-10-26 18:43:00,54.8,35.5,30.12,SSW,195,1.0,5.0,48,0.00,,,0.00,Wunderground v.1.15,2013-10-26 22:43:00,
2013-10-26 18:45:00,54.6,35.8,30.12,SSW,195,0.0,5.0,49,0.00,,,0.00,Wunderground v.1.15,2013-10-26 22:45:00,
2013-10-26 18:46:00,54.6,35.8,30.12,SSW,196,0.0,5.0,49,0.00,,,0.00,Wunderground v.1.15,2013-10-26 22:46:00,
2013-10-26 18:47:00,54.6,35.8,30.12,SSW,196,0.0,5.0,49,0.00,,,0.00,Wunderground v.1.15,2013-10-26 22:47:00,
2013-10-26 18:48:00,54.5,35.7,30.12,SSW,196,0.0,5.0,49,0.00,,,0.00,Wunderground v.1.15,2013-10-26 22:48:00,
2013-10-26 18:49:00,54.5,36.2,30.12,SSW,196,0.0,5.0,50,0.00,,,0.00,Wunderground v.1.15,2013-10-26 22:49:00,
2013-10-26 18:51:00,54.4,35.6,30.12,SSW,196,0.0,2.0,49,0.00,,,0.00,Wunderground v.1.15,2013-10-26 22:51:00,
2013-10-26 18:52:00,54.3,36.0,30.12,SSW,195,1.0,2.0,50,0.00,,,0.00,Wunderground v.1.15,2013-10-26 22:52:00,
2013-10-26 18:53:00,54.2,35.9,30.12,SSW,196,0.0,2.0,50,0.00,,,0.00,Wunderground v.1.15,2013-10-26 22:53:00,
2013-10-26 18:54:00,54.1,36.4,30.12,SSW,196,0.0,2.0,51,0.00,,,0.00,Wunderground v.1.15,2013-10-26 22:54:00,
2013-10-26 18:56:00,54.1,36.4,30.12,SSW,195,0.0,2.0,51,0.00,,,0.00,Wunderground v.1.15,2013-10-26 22:56:00,
2013-10-26 18:57:00,54.0,36.3,30.12,SSW,195,0.0,2.0,51,0.00,,,0.00,Wunderground v.1.15,2013-10-26 22:57:00,
2013-10-26 18:58:00,53.9,36.2,30.12,SSW,196,0.0,2.0,51,0.00,,,0.00,Wunderground v.1.15,2013-10-26 22:58:00,
2013-10-26 19:02:00,53.7,36.5,30.12,SSW,196,0.0,0.0,52,0.00,,,0.00,Wunderground v.1.15,2013-10-26 23:02:00,
2013-10-26 19:03:00,53.6,36.4,30.12,SSW,196,0.0,0.0,52,0.00,,,0.00,Wunderground v.1.15,2013-10-26 23:03:00,
2013-10-26 19:07:00,53.3,36.6,30.12,SSW,196,0.0,1.0,53,0.00,,,0.00,Wunderground v.1.15,2013-10-26 23:07:00,
2013-10-26 19:08:00,53.3,36.6,30.12,SSW,195,0.0,1.0,53,0.00,,,0.00,Wunderground v.1.15,2013-10-26 23:08:00,
2013-10-26 19:12:00,52.9,35.7,30.12,SSW,195,0.0,1.0,52,0.00,,,0.00,Wunderground v.1.15,2013-10-26 23:12:00,
2013-10-26 19:13:00,52.8,35.6,30.12,SSW,196,0.0,1.0,52,0.00,,,0.00,Wunderground v.1.15,2013-10-26 23:13:00,
2013-10-26 19:15:00,52.7,36.0,30.12,SSW,195,0.0,1.0,53,0.00,,,0.00,Wunderground v.1.15,2013-10-26 23:15:00,
2013-10-26 19:17:00,52.5,35.4,30.12,SSW,196,1.0,1.0,52,0.00,,,0.00,Wunderground v.1.15,2013-10-26 23:17:00,
2013-10-26 19:19:00,52.4,35.3,30.12,SSW,196,0.0,1.0,52,0.00,,,0.00,Wunderground v.1.15,2013-10-26 23:19:00,
2013-10-26 19:20:00,52.3,35.2,30.12,SSW,196,0.0,0.0,52,0.00,,,0.00,Wunderground v.1.15,2013-10-26 23:20:00,
2013-10-26 19:22:00,52.1,36.4,30.12,SSW,196,0.0,1.0,55,0.00,,,0.00,Wunderground v.1.15,2013-10-26 23:22:00,
2013-10-26 19:23:00,52.1,36.4,30.12,SSW,196,0.0,1.0,55,0.00,,,0.00,Wunderground v.1.15,2013-10-26 23:23:00,
2013-10-26 19:24:00,52.0,36.3,30.12,SSW,196,0.0,1.0,55,0.00,,,0.00,Wunderground v.1.15,2013-10-26 23:24:00,
2013-10-26 19:25:00,51.9,36.7,30.12,SSW,196,0.0,1.0,56,0.00,,,0.00,Wunderground v.1.15,2013-10-26 23:25:00,
2013-10-26 19:28:00,51.7,36.0,30.12,SSW,195,0.0,1.0,55,0.00,,,0.00,Wunderground v.1.15,2013-10-26 23:28:00,
2013-10-26 19:29:00,51.6,36.4,30.12,SSW,196,0.0,1.0,56,0.00,,,0.00,Wunderground v.1.15,2013-10-26 23:29:00,
2013-10-26 19:30:00,51.5,36.3,30.12,SSW,196,0.0,0.0,56,0.00,,,0.00,Wunderground v.1.15,2013-10-26 23:30:00,
2013-10-26 19:33:00,51.2,35.6,30.12,SSW,196,0.0,0.0,55,0.00,,,0.00,Wunderground v.1.15,2013-10-26 23:33:00,
2013-10-26 19:34:00,51.1,35.0,30.11,SSW,195,0.0,0.0,54,0.00,,,0.00,Wunderground v.1.15,2013-10-26 23:34:00,
2013-10-26 19:35:00,51.0,34.9,30.11,SSW,195,0.0,0.0,54,0.00,,,0.00,Wunderground v.1.15,2013-10-26 23:35:00,
2013-10-26 19:36:00,51.0,34.9,30.11,SSW,195,0.0,0.0,54,0.00,,,0.00,Wunderground v.1.15,2013-10-26 23:36:00,
2013-10-26 19:38:00,50.8,34.7,30.12,SSW,196,0.0,1.0,54,0.00,,,0.00,Wunderground v.1.15,2013-10-26 23:38:00,
2013-10-26 19:39:00,50.8,34.7,30.11,SSW,195,0.0,0.0,54,0.00,,,0.00,Wunderground v.1.15,2013-10-26 23:39:00,
2013-10-26 19:40:00,50.7,34.6,30.11,SSW,195,0.0,0.0,54,0.00,,,0.00,Wunderground v.1.15,2013-10-26 23:40:00,
2013-10-26 19:41:00,50.6,34.6,30.11,SSW,195,0.0,1.0,54,0.00,,,0.00,Wunderground v.1.15,2013-10-26 23:41:00,
2013-10-26 19:44:00,50.5,34.5,30.11,SSW,196,0.0,1.0,54,0.00,,,0.00,Wunderground v.1.15,2013-10-26 23:44:00,
2013-10-26 19:45:00,50.5,34.9,30.11,SSW,195,0.0,1.0,55,0.00,,,0.00,Wunderground v.1.15,2013-10-26 23:45:00,
2013-10-26 19:46:00,50.5,34.9,30.11,SSW,195,0.0,1.0,55,0.00,,,0.00,Wunderground v.1.15,2013-10-26 23:46:00,
2013-10-26 19:47:00,50.4,34.4,30.12,SSW,196,0.0,1.0,54,0.00,,,0.00,Wunderground v.1.15,2013-10-26 23:47:00,
2013-10-26 19:49:00,50.4,34.4,30.12,SSW,195,0.0,1.0,54,0.00,,,0.00,Wunderground v.1.15,2013-10-26 23:49:00,
2013-10-26 19:50:00,50.4,34.4,30.12,SSW,196,1.0,1.0,54,0.00,,,0.00,Wunderground v.1.15,2013-10-26 23:50:00,
2013-10-26 19:51:00,50.3,34.7,30.12,SSW,196,1.0,2.0,55,0.00,,,0.00,Wunderground v.1.15,2013-10-26 23:51:00,
2013-10-26 19:52:00,50.3,34.7,30.12,SSW,196,1.0,2.0,55,0.00,,,0.00,Wunderground v.1.15,2013-10-26 23:52:00,
2013-10-26 19:53:00,50.3,34.3,30.12,SSW,196,1.0,2.0,54,0.00,,,0.00,Wunderground v.1.15,2013-10-26 23:53:00,
2013-10-26 19:54:00,50.3,34.3,30.12,SSW,196,1.0,2.0,54,0.00,,,0.00,Wunderground v.1.15,2013-10-26 23:54:00,
2013-10-26 19:55:00,50.2,34.6,30.12,SSW,196,0.0,2.0,55,0.00,,,0.00,Wunderground v.1.15,2013-10-26 23:55:00,
2013-10-26 19:56:00,50.2,34.6,30.12,SSW,195,1.0,2.0,55,0.00,,,0.00,Wunderground v.1.15,2013-10-26 23:56:00,
2013-10-26 19:57:00,50.1,34.5,30.12,SSW,195,1.0,2.0,55,0.00,,,0.00,Wunderground v.1.15,2013-10-26 23:57:00,
2013-10-26 19:58:00,50.1,35.0,30.12,SSW,195,1.0,2.0,56,0.00,,,0.00,Wunderground v.1.15,2013-10-26 23:58:00,
2013-10-26 19:59:00,50.1,34.5,30.12,SSW,195,2.0,2.0,55,0.00,,,0.00,Wunderground v.1.15,2013-10-26 23:59:00,
2013-10-26 20:00:00,50.0,34.5,30.12,SSW,196,2.0,3.0,55,0.00,,,0.00,Wunderground v.1.15,2013-10-27 00:00:00,
2013-10-26 20:01:00,50.0,34.5,30.12,SSW,196,1.0,3.0,55,0.00,,,0.00,Wunderground v.1.15,2013-10-27 00:01:00,
2013-10-26 20:02:00,50.0,34.5,30.12,SSW,196,1.0,3.0,55,0.00,,,0.00,Wunderground v.1.15,2013-10-27 00:02:00,
2013-10-26 20:03:00,49.9,34.4,30.12,SSW,196,1.0,3.0,55,0.00,,,0.00,Wunderground v.1.15,2013-10-27 00:03:00,
2013-10-26 20:05:00,49.9,34.8,30.12,SSW,196,0.0,3.0,56,0.00,,,0.00,Wunderground v.1.15,2013-10-27 00:05:00,
2013-10-26 20:06:00,49.9,34.4,30.11,SSW,196,0.0,3.0,55,0.00,,,0.00,Wunderground v.1.15,2013-10-27 00:06:00,
2013-10-26 20:07:00,49.8,34.3,30.11,SSW,196,0.0,3.0,55,0.00,,,0.00,Wunderground v.1.15,2013-10-27 00:07:00,
2013-10-26 20:08:00,49.8,34.3,30.12,SSW,195,0.0,3.0,55,0.00,,,0.00,Wunderground v.1.15,2013-10-27 00:08:00,
2013-10-26 20:10:00,49.7,34.2,30.12,SSW,196,0.0,1.0,55,0.00,,,0.00,Wunderground v.1.15,2013-10-27 00:10:00,
2013-10-26 20:11:00,49.7,34.6,30.12,SSW,196,0.0,1.0,56,0.00,,,0.00,Wunderground v.1.15,2013-10-27 00:11:00,
2013-10-26 20:12:00,49.6,34.5,30.12,SSW,196,0.0,1.0,56,0.00,,,0.00,Wunderground v.1.15,2013-10-27 00:12:00,
2013-10-26 20:13:00,49.6,34.5,30.12,SSW,196,0.0,1.0,56,0.00,,,0.00,Wunderground v.1.15,2013-10-27 00:13:00,
2013-10-26 20:15:00,49.5,34.4,30.12,SSW,196,0.0,1.0,56,0.00,,,0.00,Wunderground v.1.15,2013-10-27 00:15:00,
2013-10-26 20:16:00,49.5,34.9,30.13,SSW,196,0.0,1.0,57,0.00,,,0.00,Wunderground v.1.15,2013-10-27 00:16:00,
2013-10-26 20:17:00,49.4,34.8,30.13,SSW,196,0.0,1.0,57,0.00,,,0.00,Wunderground v.1.15,2013-10-27 00:17:00,
2013-10-26 20:18:00,49.4,35.2,30.13,SSW,196,0.0,1.0,58,0.00,,,0.00,Wunderground v.1.15,2013-10-27 00:18:00,
2013-10-26 20:21:00,49.3,36.0,30.13,SSW,196,0.0,0.0,60,0.00,,,0.00,Wunderground v.1.15,2013-10-27 00:21:00,
2013-10-26 20:22:00,49.2,35.9,30.13,SSW,196,0.0,0.0,60,0.00,,,0.00,Wunderground v.1.15,2013-10-27 00:22:00,
2013-10-26 20:23:00,49.2,35.9,30.13,SSW,195,0.0,0.0,60,0.00,,,0.00,Wunderground v.1.15,2013-10-27 00:23:00,
2013-10-26 20:24:00,49.2,35.9,30.13,SSW,195,0.0,1.0,60,0.00,,,0.00,Wunderground v.1.15,2013-10-27 00:24:00,
2013-10-26 20:26:00,49.1,36.6,30.13,SSW,196,0.0,1.0,62,0.00,,,0.00,Wunderground v.1.15,2013-10-27 00:26:00,
2013-10-26 20:27:00,49.0,36.5,30.13,SSW,196,1.0,1.0,62,0.00,,,0.00,Wunderground v.1.15,2013-10-27 00:27:00,
2013-10-26 20:28:00,48.9,36.4,30.12,SSW,196,0.0,1.0,62,0.00,,,0.00,Wunderground v.1.15,2013-10-27 00:28:00,
2013-10-26 20:30:00,48.8,36.4,30.12,SSW,196,0.0,0.0,62,0.00,,,0.00,Wunderground v.1.15,2013-10-27 00:30:00,
2013-10-26 20:32:00,48.7,36.3,30.13,SSW,196,0.0,0.0,62,0.00,,,0.00,Wunderground v.1.15,2013-10-27 00:32:00,
2013-10-26 20:33:00,48.6,36.2,30.12,SSW,196,0.0,0.0,62,0.00,,,0.00,Wunderground v.1.15,2013-10-27 00:33:00,
2013-10-26 20:34:00,48.6,36.6,30.12,SSW,196,0.0,0.0,63,0.00,,,0.00,Wunderground v.1.15,2013-10-27 00:34:00,
2013-10-26 20:37:00,48.4,36.0,30.12,SSW,196,0.0,0.0,62,0.00,,,0.00,Wunderground v.1.15,2013-10-27 00:37:00,
2013-10-26 20:38:00,48.3,35.9,30.12,SSW,196,0.0,0.0,62,0.00,,,0.00,Wunderground v.1.15,2013-10-27 00:38:00,
2013-10-26 20:39:00,48.3,35.9,30.12,SSW,196,0.0,0.0,62,0.00,,,0.00,Wunderground v.1.15,2013-10-27 00:39:00,
2013-10-26 20:42:00,48.1,35.7,30.12,SSW,196,0.0,0.0,62,0.00,,,0.00,Wunderground v.1.15,2013-10-27 00:42:00,
2013-10-26 20:43:00,48.1,35.3,30.12,SSW,195,0.0,0.0,61,0.00,,,0.00,Wunderground v.1.15,2013-10-27 00:43:00,
2013-10-26 20:44:00,48.0,35.2,30.12,SSW,196,0.0,0.0,61,0.00,,,0.00,Wunderground v.1.15,2013-10-27 00:44:00,
2013-10-26 20:48:00,47.9,36.3,30.13,SSW,196,0.0,0.0,64,0.00,,,0.00,Wunderground v.1.15,2013-10-27 00:48:00,
2013-10-26 20:49:00,47.9,36.3,30.12,SSW,196,0.0,0.0,64,0.00,,,0.00,Wunderground v.1.15,2013-10-27 00:49:00,
2013-10-26 20:53:00,47.8,35.8,30.12,SSW,195,0.0,1.0,63,0.00,,,0.00,Wunderground v.1.15,2013-10-27 00:53:00,
2013-10-26 20:54:00,47.8,35.8,30.12,SSW,196,0.0,1.0,63,0.00,,,0.00,Wunderground v.1.15,2013-10-27 00:54:00,
2013-10-26 20:55:00,47.8,35.8,30.12,SSW,196,0.0,1.0,63,0.00,,,0.00,Wunderground v.1.15,2013-10-27 00:55:00,
2013-10-26 20:58:00,47.9,35.5,30.12,SSW,196,0.0,1.0,62,0.00,,,0.00,Wunderground v.1.15,2013-10-27 00:58:00,
2013-10-26 20:59:00,47.9,35.9,30.12,SSW,196,1.0,1.0,63,0.00,,,0.00,Wunderground v.1.15,2013-10-27 00:59:00,
2013-10-26 21:00:00,48.0,35.2,30.12,SSW,195,0.0,1.0,61,0.00,,,0.00,Wunderground v.1.15,2013-10-27 01:00:00,
2013-10-26 21:03:00,48.2,35.4,30.13,SSW,195,0.0,1.0,61,0.00,,,0.00,Wunderground v.1.15,2013-10-27 01:03:00,
2013-10-26 21:04:00,48.2,36.2,30.12,SSW,196,0.0,1.0,63,0.00,,,0.00,Wunderground v.1.15,2013-10-27 01:04:00,
2013-10-26 21:05:00,48.3,35.5,30.12,SSW,196,0.0,1.0,61,0.00,,,0.00,Wunderground v.1.15,2013-10-27 01:05:00,
2013-10-26 21:06:00,48.3,35.0,30.12,SSW,196,1.0,1.0,60,0.00,,,0.00,Wunderground v.1.15,2013-10-27 01:06:00,
2013-10-26 21:08:00,48.5,34.8,30.12,SSW,195,0.0,1.0,59,0.00,,,0.00,Wunderground v.1.15,2013-10-27 01:08:00,
2013-10-26 21:09:00,48.6,35.3,30.13,SSW,196,0.0,1.0,60,0.00,,,0.00,Wunderground v.1.15,2013-10-27 01:09:00,
2013-10-26 21:10:00,48.6,35.3,30.13,SSW,196,0.0,0.0,60,0.00,,,0.00,Wunderground v.1.15,2013-10-27 01:10:00,
2013-10-26 21:12:00,48.7,35.4,30.13,SSW,196,0.0,0.0,60,0.00,,,0.00,Wunderground v.1.15,2013-10-27 01:12:00,
2013-10-26 21:13:00,48.7,35.4,30.13,SSW,196,0.0,0.0,60,0.00,,,0.00,Wunderground v.1.15,2013-10-27 01:13:00,
2013-10-26 21:14:00,48.7,35.4,30.13,SSW,196,0.0,0.0,60,0.00,,,0.00,Wunderground v.1.15,2013-10-27 01:14:00,
2013-10-26 21:15:00,48.8,35.1,30.13,SSW,196,0.0,0.0,59,0.00,,,0.00,Wunderground v.1.15,2013-10-27 01:15:00,
2013-10-26 21:16:00,48.8,35.1,30.13,SSW,196,0.0,0.0,59,0.00,,,0.00,Wunderground v.1.15,2013-10-27 01:16:00,
2013-10-26 21:17:00,48.8,35.5,30.13,SSW,196,0.0,0.0,60,0.00,,,0.00,Wunderground v.1.15,2013-10-27 01:17:00,
2013-10-26 21:19:00,48.8,35.5,30.13,SSW,196,0.0,1.0,60,0.00,,,0.00,Wunderground v.1.15,2013-10-27 01:19:00,
2013-10-26 21:20:00,48.9,35.2,30.13,SSW,196,0.0,1.0,59,0.00,,,0.00,Wunderground v.1.15,2013-10-27 01:20:00,
2013-10-26 21:21:00,48.9,35.2,30.13,SSW,196,0.0,1.0,59,0.00,,,0.00,Wunderground v.1.15,2013-10-27 01:21:00,
2013-10-26 21:23:00,48.9,35.6,30.13,SSW,196,1.0,1.0,60,0.00,,,0.00,Wunderground v.1.15,2013-10-27 01:23:00,
2013-10-26 21:24:00,48.9,35.6,30.13,SSW,196,0.0,2.0,60,0.00,,,0.00,Wunderground v.1.15,2013-10-27 01:24:00,
2013-10-26 21:25:00,48.9,35.6,30.13,SSW,196,0.0,2.0,60,0.00,,,0.00,Wunderground v.1.15,2013-10-27 01:25:00,
2013-10-26 21:26:00,48.9,35.6,30.13,SSW,196,0.0,2.0,60,0.00,,,0.00,Wunderground v.1.15,2013-10-27 01:26:00,
2013-10-26 21:28:00,49.0,35.7,30.13,SSW,196,1.0,2.0,60,0.00,,,0.00,Wunderground v.1.15,2013-10-27 01:28:00,
2013-10-26 21:30:00,49.0,36.1,30.13,SSW,196,0.0,0.0,61,0.00,,,0.00,Wunderground v.1.15,2013-10-27 01:30:00,
2013-10-26 21:31:00,49.1,36.2,30.13,SSW,196,0.0,0.0,61,0.00,,,0.00,Wunderground v.1.15,2013-10-27 01:31:00,
2013-10-26 21:34:00,49.1,36.2,30.13,SSW,195,0.0,0.0,61,0.00,,,0.00,Wunderground v.1.15,2013-10-27 01:34:00,
2013-10-26 21:35:00,49.2,36.7,30.13,SSW,196,0.0,0.0,62,0.00,,,0.00,Wunderground v.1.15,2013-10-27 01:35:00,
2013-10-26 21:36:00,49.2,36.7,30.13,SSW,196,0.0,0.0,62,0.00,,,0.00,Wunderground v.1.15,2013-10-27 01:36:00,
2013-10-26 21:37:00,49.2,36.3,30.13,SSW,196,0.0,0.0,61,0.00,,,0.00,Wunderground v.1.15,2013-10-27 01:37:00,
2013-10-26 21:39:00,49.2,36.7,30.13,SSW,195,0.0,0.0,62,0.00,,,0.00,Wunderground v.1.15,2013-10-27 01:39:00,
2013-10-26 21:40:00,49.2,36.7,30.13,SSW,196,0.0,0.0,62,0.00,,,0.00,Wunderground v.1.15,2013-10-27 01:40:00,
2013-10-26 21:41:00,49.3,36.8,30.13,SSW,196,0.0,0.0,62,0.00,,,0.00,Wunderground v.1.15,2013-10-27 01:41:00,
2013-10-26 21:42:00,49.3,36.8,30.13,SSW,196,0.0,0.0,62,0.00,,,0.00,Wunderground v.1.15,2013-10-27 01:42:00,
2013-10-26 21:45:00,49.4,37.7,30.12,SSW,196,0.0,0.0,64,0.00,,,0.00,Wunderground v.1.15,2013-10-27 01:45:00,
2013-10-26 21:46:00,49.4,37.7,30.12,SSW,196,0.0,0.0,64,0.00,,,0.00,Wunderground v.1.15,2013-10-27 01:46:00,
2013-10-26 21:47:00,49.4,37.7,30.12,SSW,195,0.0,0.0,64,0.00,,,0.00,Wunderground v.1.15,2013-10-27 01:47:00,
2013-10-26 21:48:00,49.4,37.7,30.13,SSW,196,0.0,0.0,64,0.00,,,0.00,Wunderground v.1.15,2013-10-27 01:48:00,
2013-10-26 21:51:00,49.4,36.9,30.13,SSW,196,0.0,0.0,62,0.00,,,0.00,Wunderground v.1.15,2013-10-27 01:51:00,
2013-10-26 21:52:00,49.4,36.9,30.13,SSW,196,0.0,0.0,62,0.00,,,0.00,Wunderground v.1.15,2013-10-27 01:52:00,
2013-10-26 21:54:00,49.4,36.5,30.13,SSW,196,0.0,0.0,61,0.00,,,0.00,Wunderground v.1.15,2013-10-27 01:54:00,
2013-10-26 21:56:00,49.4,37.3,30.13,SSW,196,0.0,0.0,63,0.00,,,0.00,Wunderground v.1.15,2013-10-27 01:56:00,
2013-10-26 21:57:00,49.4,36.9,30.13,SSW,196,0.0,0.0,62,0.00,,,0.00,Wunderground v.1.15,2013-10-27 01:57:00,
2013-10-26 21:59:00,49.4,36.5,30.13,SSW,196,0.0,0.0,61,0.00,,,0.00,Wunderground v.1.15,2013-10-27 01:59:00,
2013-10-26 22:01:00,49.4,36.5,30.13,SSW,196,0.0,0.0,61,0.00,,,0.00,Wunderground v.1.15,2013-10-27 02:01:00,
2013-10-26 22:02:00,49.4,36.9,30.13,SSW,196,0.0,0.0,62,0.00,,,0.00,Wunderground v.1.15,2013-10-27 02:02:00,
2013-10-26 22:03:00,49.4,36.9,30.13,SSW,196,0.0,0.0,62,0.00,,,0.00,Wunderground v.1.15,2013-10-27 02:03:00,
2013-10-26 22:04:00,49.4,36.9,30.13,SSW,195,0.0,0.0,62,0.00,,,0.00,Wunderground v.1.15,2013-10-27 02:04:00,
2013-10-26 22:06:00,49.4,36.9,30.13,SSW,196,0.0,0.0,62,0.00,,,0.00,Wunderground v.1.15,2013-10-27 02:06:00,
2013-10-26 22:07:00,49.4,37.3,30.13,SSW,195,0.0,0.0,63,0.00,,,0.00,Wunderground v.1.15,2013-10-27 02:07:00,
2013-10-26 22:09:00,49.4,37.7,30.13,SSW,195,0.0,0.0,64,0.00,,,0.00,Wunderground v.1.15,2013-10-27 02:09:00,
2013-10-26 22:11:00,49.4,37.3,30.13,SSW,196,0.0,0.0,63,0.00,,,0.00,Wunderground v.1.15,2013-10-27 02:11:00,
2013-10-26 22:12:00,49.3,37.6,30.13,SSW,196,0.0,0.0,64,0.00,,,0.00,Wunderground v.1.15,2013-10-27 02:12:00,
2013-10-26 22:13:00,49.3,37.6,30.13,SSW,195,0.0,0.0,64,0.00,,,0.00,Wunderground v.1.15,2013-10-27 02:13:00,
2013-10-26 22:14:00,49.3,37.6,30.13,SSW,196,0.0,0.0,64,0.00,,,0.00,Wunderground v.1.15,2013-10-27 02:14:00,
2013-10-26 22:17:00,49.3,36.8,30.13,SSW,196,0.0,0.0,62,0.00,,,0.00,Wunderground v.1.15,2013-10-27 02:17:00,
2013-10-26 22:18:00,49.2,37.1,30.13,SSW,196,0.0,0.0,63,0.00,,,0.00,Wunderground v.1.15,2013-10-27 02:18:00,
2013-10-26 22:20:00,49.2,37.5,30.12,SSW,195,0.0,0.0,64,0.00,,,0.00,Wunderground v.1.15,2013-10-27 02:20:00,
2013-10-26 22:22:00,49.2,37.1,30.13,SSW,196,0.0,0.0,63,0.00,,,0.00,Wunderground v.1.15,2013-10-27 02:22:00,
2013-10-26 22:23:00,49.2,37.1,30.13,SSW,196,0.0,0.0,63,0.00,,,0.00,Wunderground v.1.15,2013-10-27 02:23:00,
2013-10-26 22:25:00,49.1,37.0,30.12,SSW,196,0.0,1.0,63,0.00,,,0.00,Wunderground v.1.15,2013-10-27 02:25:00,
2013-10-26 22:27:00,49.0,36.9,30.12,SSW,196,0.0,1.0,63,0.00,,,0.00,Wunderground v.1.15,2013-10-27 02:27:00,
2013-10-26 22:28:00,49.0,36.5,30.12,SSW,196,0.0,1.0,62,0.00,,,0.00,Wunderground v.1.15,2013-10-27 02:28:00,
2013-10-26 22:30:00,49.0,36.9,30.12,SSW,196,0.0,0.0,63,0.00,,,0.00,Wunderground v.1.15,2013-10-27 02:30:00,
2013-10-26 22:31:00,49.0,36.9,30.12,SSW,196,0.0,0.0,63,0.00,,,0.00,Wunderground v.1.15,2013-10-27 02:31:00,
2013-10-26 22:32:00,48.9,36.4,30.12,SSW,196,0.0,0.0,62,0.00,,,0.00,Wunderground v.1.15,2013-10-27 02:32:00,
2013-10-26 22:34:00,48.9,36.4,30.12,SSW,195,0.0,0.0,62,0.00,,,0.00,Wunderground v.1.15,2013-10-27 02:34:00,
2013-10-26 22:35:00,48.9,36.9,30.12,SSW,196,0.0,0.0,63,0.00,,,0.00,Wunderground v.1.15,2013-10-27 02:35:00,
2013-10-26 22:36:00,48.9,36.9,30.12,SSW,196,0.0,0.0,63,0.00,,,0.00,Wunderground v.1.15,2013-10-27 02:36:00,
2013-10-26 22:38:00,48.8,37.2,30.11,SSW,196,0.0,0.0,64,0.00,,,0.00,Wunderground v.1.15,2013-10-27 02:38:00,
2013-10-26 22:39:00,48.9,36.4,30.11,SSW,196,3.0,4.0,62,0.00,,,0.00,Wunderground v.1.15,2013-10-27 02:39:00,
2013-10-26 22:41:00,49.1,35.4,30.11,SSW,199,5.0,5.0,59,0.00,,,0.00,Wunderground v.1.15,2013-10-27 02:41:00,
2013-10-26 22:43:00,49.7,35.5,30.11,South,190,5.0,5.0,58,0.00,,,0.00,Wunderground v.1.15,2013-10-27 02:43:00,
2013-10-26 22:44:00,49.8,35.6,30.11,SW,219,6.0,6.0,58,0.00,,,0.00,Wunderground v.1.15,2013-10-27 02:44:00,
2013-10-26 22:45:00,50.2,36.0,30.11,SW,223,1.0,6.0,58,0.00,,,0.00,Wunderground v.1.15,2013-10-27 02:45:00,
2013-10-26 22:46:00,50.3,36.1,30.11,SW,222,2.0,6.0,58,0.00,,,0.00,Wunderground v.1.15,2013-10-27 02:46:00,
2013-10-26 22:48:00,50.6,35.5,30.11,SW,223,1.0,6.0,56,0.00,,,0.00,Wunderground v.1.15,2013-10-27 02:48:00,
2013-10-26 22:49:00,50.6,35.5,30.11,SW,223,0.0,2.0,56,0.00,,,0.00,Wunderground v.1.15,2013-10-27 02:49:00,
2013-10-26 22:50:00,50.7,35.6,30.11,SW,223,1.0,2.0,56,0.00,,,0.00,Wunderground v.1.15,2013-10-27 02:50:00,
2013-10-26 22:51:00,50.8,36.1,30.11,SW,222,1.0,2.0,57,0.00,,,0.00,Wunderground v.1.15,2013-10-27 02:51:00,
2013-10-26 22:54:00,51.1,36.8,30.11,SW,222,0.0,2.0,58,0.00,,,0.00,Wunderground v.1.15,2013-10-27 02:54:00,
2013-10-26 22:55:00,51.1,36.8,30.11,SW,223,0.0,2.0,58,0.00,,,0.00,Wunderground v.1.15,2013-10-27 02:55:00,
2013-10-26 22:56:00,51.2,36.9,30.12,SW,223,0.0,2.0,58,0.00,,,0.00,Wunderground v.1.15,2013-10-27 02:56:00,
2013-10-26 22:57:00,51.2,36.9,30.12,SW,222,1.0,2.0,58,0.00,,,0.00,Wunderground v.1.15,2013-10-27 02:57:00,
2013-10-26 22:59:00,51.4,37.5,30.12,SW,222,0.0,0.0,59,0.00,,,0.00,Wunderground v.1.15,2013-10-27 02:59:00,
2013-10-26 23:00:00,51.4,37.5,30.12,SW,222,1.0,2.0,59,0.00,,,0.00,Wunderground v.1.15,2013-10-27 03:00:00,
2013-10-26 23:01:00,51.4,36.7,30.12,SW,222,2.0,2.0,57,0.00,,,0.00,Wunderground v.1.15,2013-10-27 03:01:00,
2013-10-26 23:02:00,51.5,36.8,30.12,SW,222,0.0,2.0,57,0.00,,,0.00,Wunderground v.1.15,2013-10-27 03:02:00,
2013-10-26 23:04:00,51.7,37.4,30.12,SW,222,0.0,2.0,58,0.00,,,0.00,Wunderground v.1.15,2013-10-27 03:04:00,
2013-10-26 23:05:00,51.7,37.4,30.12,SW,222,2.0,2.0,58,0.00,,,0.00,Wunderground v.1.15,2013-10-27 03:05:00,
2013-10-26 23:06:00,51.8,37.5,30.12,SW,222,0.0,2.0,58,0.00,,,0.00,Wunderground v.1.15,2013-10-27 03:06:00,
2013-10-26 23:07:00,51.9,37.6,30.12,SW,222,0.0,2.0,58,0.00,,,0.00,Wunderground v.1.15,2013-10-27 03:07:00,
2013-10-26 23:08:00,51.9,37.6,30.12,SW,222,0.0,3.0,58,0.00,,,0.00,Wunderground v.1.15,2013-10-27 03:08:00,
2013-10-26 23:09:00,52.1,38.2,30.12,SW,223,0.0,1.0,59,0.00,,,0.00,Wunderground v.1.15,2013-10-27 03:09:00,
2013-10-26 23:10:00,52.1,37.8,30.12,SW,222,0.0,1.0,58,0.00,,,0.00,Wunderground v.1.15,2013-10-27 03:10:00,
2013-10-26 23:11:00,52.1,38.2,30.12,SW,223,0.0,1.0,59,0.00,,,0.00,Wunderground v.1.15,2013-10-27 03:11:00,
2013-10-26 23:13:00,52.2,37.9,30.12,SW,218,0.0,3.0,58,0.00,,,0.00,Wunderground v.1.15,2013-10-27 03:13:00,
2013-10-26 23:14:00,52.3,38.0,30.12,SW,218,0.0,3.0,58,0.00,,,0.00,Wunderground v.1.15,2013-10-27 03:14:00,
2013-10-26 23:15:00,52.3,38.0,30.12,SW,218,1.0,3.0,58,0.00,,,0.00,Wunderground v.1.15,2013-10-27 03:15:00,
2013-10-26 23:16:00,52.4,38.0,30.12,SW,218,0.0,3.0,58,0.00,,,0.00,Wunderground v.1.15,2013-10-27 03:16:00,
2013-10-26 23:18:00,52.5,37.7,30.12,SW,218,0.0,3.0,57,0.00,,,0.00,Wunderground v.1.15,2013-10-27 03:18:00,
2013-10-26 23:19:00,52.6,37.8,30.12,SW,218,0.0,3.0,57,0.00,,,0.00,Wunderground v.1.15,2013-10-27 03:19:00,
2013-10-26 23:20:00,52.6,37.8,30.12,SW,218,0.0,1.0,57,0.00,,,0.00,Wunderground v.1.15,2013-10-27 03:20:00,
2013-10-26 23:21:00,52.6,37.8,30.12,SW,218,2.0,2.0,57,0.00,,,0.00,Wunderground v.1.15,2013-10-27 03:21:00,
2013-10-26 23:23:00,52.8,37.5,30.12,SW,218,0.0,2.0,56,0.00,,,0.00,Wunderground v.1.15,2013-10-27 03:23:00,
2013-10-26 23:24:00,52.8,37.5,30.12,SW,218,0.0,2.0,56,0.00,,,0.00,Wunderground v.1.15,2013-10-27 03:24:00,
2013-10-26 23:25:00,52.9,37.6,30.12,SW,218,0.0,2.0,56,0.00,,,0.00,Wunderground v.1.15,2013-10-27 03:25:00,
2013-10-26 23:26:00,52.9,37.6,30.12,SW,218,0.0,2.0,56,0.00,,,0.00,Wunderground v.1.15,2013-10-27 03:26:00,
2013-10-26 23:28:00,53.0,37.3,30.12,SW,218,0.0,2.0,55,0.00,,,0.00,Wunderground v.1.15,2013-10-27 03:28:00,
2013-10-26 23:29:00,53.1,37.3,30.12,SW,218,0.0,0.0,55,0.00,,,0.00,Wunderground v.1.15,2013-10-27 03:29:00,
2013-10-26 23:30:00,53.1,37.3,30.12,SW,218,0.0,0.0,55,0.00,,,0.00,Wunderground v.1.15,2013-10-27 03:30:00,
2013-10-26 23:31:00,53.2,37.4,30.12,SW,218,0.0,1.0,55,0.00,,,0.00,Wunderground v.1.15,2013-10-27 03:31:00,
2013-10-26 23:34:00,53.4,37.6,30.12,SW,218,1.0,3.0,55,0.00,,,0.00,Wunderground v.1.15,2013-10-27 03:34:00,
2013-10-26 23:35:00,53.4,37.6,30.12,SW,218,0.0,3.0,55,0.00,,,0.00,Wunderground v.1.15,2013-10-27 03:35:00,
2013-10-26 23:36:00,53.4,37.6,30.12,SW,218,0.0,3.0,55,0.00,,,0.00,Wunderground v.1.15,2013-10-27 03:36:00,
2013-10-26 23:39:00,53.6,37.3,30.13,SW,218,1.0,1.0,54,0.00,,,0.00,Wunderground v.1.15,2013-10-27 03:39:00,
2013-10-26 23:40:00,53.6,37.8,30.13,SW,218,2.0,2.0,55,0.00,,,0.00,Wunderground v.1.15,2013-10-27 03:40:00,
2013-10-26 23:41:00,53.7,37.9,30.13,SW,218,1.0,2.0,55,0.00,,,0.00,Wunderground v.1.15,2013-10-27 03:41:00,
2013-10-26 23:45:00,53.9,37.6,30.13,SW,218,0.0,3.0,54,0.00,,,0.00,Wunderground v.1.15,2013-10-27 03:45:00,
2013-10-26 23:46:00,53.9,37.6,30.13,SW,218,0.0,3.0,54,0.00,,,0.00,Wunderground v.1.15,2013-10-27 03:46:00,
2013-10-26 23:47:00,53.9,37.6,30.13,SW,218,1.0,3.0,54,0.00,,,0.00,Wunderground v.1.15,2013-10-27 03:47:00,
2013-10-26 23:50:00,54.0,38.2,30.13,SW,218,0.0,1.0,55,0.00,,,0.00,Wunderground v.1.15,2013-10-27 03:50:00,
2013-10-26 23:51:00,54.0,38.2,30.13,SW,218,0.0,1.0,55,0.00,,,0.00,Wunderground v.1.15,2013-10-27 03:51:00,
2013-10-26 23:52:00,54.1,38.7,30.13,SW,218,0.0,1.0,56,0.00,,,0.00,Wunderground v.1.15,2013-10-27 03:52:00,
2013-10-26 23:53:00,54.1,38.7,30.13,SW,218,0.0,1.0,56,0.00,,,0.00,Wunderground v.1.15,2013-10-27 03:53:00,
2013-10-26 23:56:00,54.0,37.2,30.13,SW,218,0.0,1.0,53,0.00,,,0.00,Wunderground v.1.15,2013-10-27 03:56:00,
2013-10-26 23:57:00,54.0,37.7,30.13,SW,218,1.0,1.0,54,0.00,,,0.00,Wunderground v.1.15,2013-10-27 03:57:00,
2013-10-26 23:58:00,54.0,37.7,30.13,SW,218,0.0,1.0,54,0.00,,,0.00,Wunderground v.1.15,2013-10-27 03:58:00,